Wetterdaten: Mittwoch, 07.10.2020
Datum Zeit Temp. Aussen Temp. o. S. Temp +5cm Feuchte Auss Luftdruck Regen Sonnenschein Regendauer Solar Windben Empfang
07.10.2020 00:00 12,3 C 11,7 C 11,1 C 91 % 1001,6 hPa 0,0 l/m 0 min 0 min 0 W/m 16,1 km/h (3 Bft) 95,74 %
07.10.2020 00:02 12,3 C 11,7 C 11,1 C 91 % 1001,6 hPa 0,0 l/m 0 min 0 min 0 W/m 12,9 km/h (3 Bft) 95,65 %
07.10.2020 00:04 12,3 C 11,7 C 11,1 C 91 % 1001,6 hPa 0,0 l/m 0 min 0 min 0 W/m 25,7 km/h (4 Bft) 94,74 %
07.10.2020 00:07 12,3 C 11,7 C 11,1 C 91 % 1001,6 hPa 0,0 l/m 0 min 0 min 0 W/m 25,7 km/h (4 Bft) 95,12 %
07.10.2020 00:08 12,3 C 11,7 C 11,1 C 91 % 1001,6 hPa 0,0 l/m 0 min 0 min 0 W/m 22,5 km/h (4 Bft) 90,91 %
07.10.2020 00:10 12,3 C 11,7 C 11,1 C 91 % 1001,6 hPa 0,0 l/m 0 min 0 min 0 W/m 22,5 km/h (4 Bft) 93,62 %
07.10.2020 00:12 12,3 C 11,7 C 11,1 C 91 % 1001,6 hPa 0,2 l/m 0 min 0 min 0 W/m 25,7 km/h (4 Bft) 95,74 %
07.10.2020 00:14 12,3 C 11,7 C 11,1 C 91 % 1001,6 hPa 0,0 l/m 0 min 0 min 0 W/m 12,9 km/h (3 Bft) 95,74 %
07.10.2020 00:16 12,3 C 11,7 C 11,1 C 91 % 1001,6 hPa 0,0 l/m 0 min 0 min 0 W/m 25,7 km/h (4 Bft) 95,74 %
07.10.2020 00:18 12,3 C 11,7 C 11,1 C 91 % 1001,7 hPa 0,0 l/m 0 min 0 min 0 W/m 22,5 km/h (4 Bft) 95,74 %
07.10.2020 00:20 12,3 C 11,7 C 11,1 C 91 % 1001,7 hPa 0,0 l/m 0 min 0 min 0 W/m 12,9 km/h (3 Bft) 97,83 %
07.10.2020 00:22 12,3 C 11,7 C 11,1 C 91 % 1001,8 hPa 0,0 l/m 0 min 0 min 0 W/m 12,9 km/h (3 Bft) 97,87 %
07.10.2020 00:24 12,3 C 11,7 C 11,1 C 91 % 1001,9 hPa 0,0 l/m 0 min 0 min 0 W/m 16,1 km/h (3 Bft) 100,00 %
07.10.2020 00:26 12,3 C 11,7 C 11,1 C 91 % 1001,8 hPa 0,0 l/m 0 min 0 min 0 W/m 16,1 km/h (3 Bft) 95,74 %
07.10.2020 00:28 12,3 C 11,7 C 11,1 C 91 % 1001,8 hPa 0,0 l/m 0 min 0 min 0 W/m 12,9 km/h (3 Bft) 97,87 %
07.10.2020 00:30 12,3 C 11,7 C 11,1 C 91 % 1001,8 hPa 0,0 l/m 0 min 0 min 0 W/m 19,3 km/h (3 Bft) 100,00 %
07.10.2020 00:32 12,3 C 11,7 C 11,1 C 91 % 1001,9 hPa 0,0 l/m 0 min 0 min 0 W/m 19,3 km/h (3 Bft) 95,74 %
07.10.2020 00:34 12,3 C 11,7 C 11,1 C 91 % 1001,9 hPa 0,0 l/m 0 min 0 min 0 W/m 16,1 km/h (3 Bft) 100,00 %
07.10.2020 00:36 12,3 C 11,7 C 11,1 C 90 % 1001,9 hPa 0,0 l/m 0 min 0 min 0 W/m 16,1 km/h (3 Bft) 100,00 %
07.10.2020 00:38 12,3 C 11,7 C 11,7 C 90 % 1001,9 hPa 0,0 l/m 0 min 0 min 0 W/m 22,5 km/h (4 Bft) 97,87 %
07.10.2020 00:40 12,3 C 11,7 C 11,7 C 90 % 1001,9 hPa 0,0 l/m 0 min 0 min 0 W/m 12,9 km/h (3 Bft) 100,00 %
07.10.2020 00:42 12,3 C 11,7 C 11,7 C 90 % 1002,0 hPa 0,0 l/m 0 min 0 min 0 W/m 16,1 km/h (3 Bft) 100,00 %
07.10.2020 00:44 12,3 C 11,7 C 11,7 C 90 % 1002,0 hPa 0,0 l/m 0 min 0 min 0 W/m 19,3 km/h (3 Bft) 100,00 %
07.10.2020 00:46 12,3 C 11,7 C 11,1 C 90 % 1002,0 hPa 0,0 l/m 0 min 0 min 0 W/m 19,3 km/h (3 Bft) 95,74 %
07.10.2020 00:48 12,3 C 11,7 C 11,1 C 90 % 1002,0 hPa 0,0 l/m 0 min 0 min 0 W/m 12,9 km/h (3 Bft) 100,00 %
07.10.2020 00:50 12,4 C 11,7 C 11,7 C 90 % 1002,0 hPa 0,0 l/m 0 min 0 min 0 W/m 16,1 km/h (3 Bft) 100,00 %
07.10.2020 00:52 12,4 C 11,7 C 11,7 C 90 % 1002,1 hPa 0,0 l/m 0 min 0 min 0 W/m 19,3 km/h (3 Bft) 97,87 %
07.10.2020 00:54 12,4 C 11,7 C 11,7 C 90 % 1002,0 hPa 0,0 l/m 0 min 0 min 0 W/m 16,1 km/h (3 Bft) 100,00 %
07.10.2020 00:56 12,4 C 11,7 C 11,7 C 90 % 1002,0 hPa 0,0 l/m 0 min 0 min 0 W/m 22,5 km/h (4 Bft) 100,00 %
07.10.2020 00:58 12,4 C 11,7 C 11,1 C 90 % 1002,0 hPa 0,0 l/m 0 min 0 min 0 W/m 12,9 km/h (3 Bft) 97,87 %
07.10.2020 01:00 12,4 C 11,7 C 11,1 C 90 % 1002,1 hPa 0,0 l/m 0 min 0 min 0 W/m 16,1 km/h (3 Bft) 100,00 %
07.10.2020 01:02 12,4 C 11,7 C 11,1 C 90 % 1002,0 hPa 0,0 l/m 0 min 0 min 0 W/m 12,9 km/h (3 Bft) 100,00 %
07.10.2020 01:04 12,4 C 11,7 C 11,1 C 90 % 1002,0 hPa 0,0 l/m 0 min 0 min 0 W/m 16,1 km/h (3 Bft) 100,00 %
07.10.2020 01:06 12,4 C 11,1 C 11,1 C 90 % 1002,0 hPa 0,0 l/m 0 min 2 min 0 W/m 12,9 km/h (3 Bft) 100,00 %
07.10.2020 01:08 12,4 C 10,6 C 11,1 C 90 % 1002,1 hPa 0,0 l/m 0 min 2 min 0 W/m 12,9 km/h (3 Bft) 100,00 %
07.10.2020 01:10 12,4 C 10,6 C 10,6 C 90 % 1002,0 hPa 0,0 l/m 0 min 2 min 0 W/m 16,1 km/h (3 Bft) 100,00 %
07.10.2020 01:12 12,4 C 10,6 C 10,6 C 91 % 1002,0 hPa 0,0 l/m 0 min 2 min 0 W/m 22,5 km/h (4 Bft) 95,74 %
07.10.2020 01:14 12,4 C 10,6 C 10,6 C 91 % 1002,0 hPa 0,0 l/m 0 min 2 min 0 W/m 12,9 km/h (3 Bft) 100,00 %
07.10.2020 01:16 12,4 C 10,6 C 10,6 C 91 % 1002,1 hPa 0,0 l/m 0 min 2 min 0 W/m 16,1 km/h (3 Bft) 100,00 %
07.10.2020 01:18 12,4 C 10,6 C 10,6 C 91 % 1002,1 hPa 0,0 l/m 0 min 2 min 0 W/m 19,3 km/h (3 Bft) 100,00 %
07.10.2020 01:20 12,4 C 10,6 C 10,6 C 91 % 1002,1 hPa 0,0 l/m 0 min 2 min 0 W/m 12,9 km/h (3 Bft) 100,00 %
07.10.2020 01:22 12,3 C 10,6 C 10,6 C 91 % 1002,1 hPa 0,0 l/m 0 min 2 min 0 W/m 25,7 km/h (4 Bft) 100,00 %
07.10.2020 01:24 12,3 C 10,6 C 10,6 C 91 % 1002,2 hPa 0,0 l/m 0 min 2 min 0 W/m 16,1 km/h (3 Bft) 100,00 %
07.10.2020 01:26 12,3 C 10,6 C 10,6 C 91 % 1002,2 hPa 0,0 l/m 0 min 2 min 0 W/m 19,3 km/h (3 Bft) 97,87 %
07.10.2020 01:28 12,3 C 10,6 C 10,6 C 92 % 1002,3 hPa 0,0 l/m 0 min 2 min 0 W/m 19,3 km/h (3 Bft) 100,00 %
07.10.2020 01:30 12,2 C 10,6 C 10,6 C 92 % 1002,3 hPa 0,0 l/m 0 min 2 min 0 W/m 12,9 km/h (3 Bft) 100,00 %
07.10.2020 01:32 12,2 C 10,6 C 10,6 C 92 % 1002,3 hPa 0,0 l/m 0 min 2 min 0 W/m 19,3 km/h (3 Bft) 100,00 %
07.10.2020 01:34 12,2 C 10,6 C 10,6 C 92 % 1002,3 hPa 0,0 l/m 0 min 2 min 0 W/m 16,1 km/h (3 Bft) 100,00 %
07.10.2020 01:36 12,2 C 10,6 C 10,6 C 92 % 1002,4 hPa 0,0 l/m 0 min 2 min 0 W/m 19,3 km/h (3 Bft) 100,00 %
07.10.2020 01:38 12,2 C 10,6 C 10,6 C 92 % 1002,4 hPa 0,0 l/m 0 min 2 min 0 W/m 12,9 km/h (3 Bft) 97,87 %
07.10.2020 01:40 12,1 C 10,6 C 10,6 C 92 % 1002,4 hPa 0,0 l/m 0 min 2 min 0 W/m 16,1 km/h (3 Bft) 100,00 %
07.10.2020 01:42 12,1 C 10,6 C 10,6 C 92 % 1002,5 hPa 0,0 l/m 0 min 0 min 0 W/m 16,1 km/h (3 Bft) 100,00 %
07.10.2020 01:44 12,1 C 10,6 C 10,6 C 92 % 1002,4 hPa 0,0 l/m 0 min 0 min 0 W/m 16,1 km/h (3 Bft) 100,00 %
07.10.2020 01:46 12,1 C 10,6 C 10,6 C 93 % 1002,5 hPa 0,0 l/m 0 min 2 min 0 W/m 16,1 km/h (3 Bft) 100,00 %
07.10.2020 01:48 12,1 C 10,6 C 10,6 C 93 % 1002,5 hPa 0,0 l/m 0 min 2 min 0 W/m 25,7 km/h (4 Bft) 100,00 %
07.10.2020 01:50 12,1 C 10,6 C 10,6 C 93 % 1002,5 hPa 0,0 l/m 0 min 2 min 0 W/m 19,3 km/h (3 Bft) 100,00 %
07.10.2020 01:52 12,1 C 10,6 C 10,6 C 93 % 1002,4 hPa 0,0 l/m 0 min 2 min 0 W/m 19,3 km/h (3 Bft) 100,00 %
07.10.2020 01:54 12,1 C 10,6 C 10,6 C 93 % 1002,4 hPa 0,0 l/m 0 min 2 min 0 W/m 19,3 km/h (3 Bft) 100,00 %
07.10.2020 01:56 12,1 C 10,6 C 10,6 C 93 % 1002,4 hPa 0,0 l/m 0 min 2 min 0 W/m 25,7 km/h (4 Bft) 100,00 %
07.10.2020 01:58 12,0 C 10,6 C 10,6 C 93 % 1002,5 hPa 0,0 l/m 0 min 2 min 0 W/m 22,5 km/h (4 Bft) 100,00 %
07.10.2020 02:00 12,0 C 10,6 C 10,6 C 93 % 1002,5 hPa 0,0 l/m 0 min 2 min 0 W/m 22,5 km/h (4 Bft) 97,87 %
07.10.2020 02:02 12,0 C 10,6 C 10,6 C 93 % 1002,4 hPa 0,0 l/m 0 min 2 min 0 W/m 25,7 km/h (4 Bft) 97,67 %
07.10.2020 02:04 12,0 C 10,6 C 10,6 C 93 % 1002,5 hPa 0,0 l/m 0 min 2 min 0 W/m 19,3 km/h (3 Bft) 95,74 %
07.10.2020 02:06 12,0 C 10,6 C 10,6 C 93 % 1002,5 hPa 0,0 l/m 0 min 2 min 0 W/m 16,1 km/h (3 Bft) 95,65 %
07.10.2020 02:08 11,9 C 10,6 C 10,6 C 93 % 1002,5 hPa 0,0 l/m 0 min 0 min 0 W/m 19,3 km/h (3 Bft) 95,74 %
07.10.2020 02:10 11,9 C 10,6 C 10,6 C 93 % 1002,5 hPa 0,0 l/m 0 min 0 min 0 W/m 22,5 km/h (4 Bft) 97,87 %
07.10.2020 02:12 11,9 C 10,6 C 10,6 C 94 % 1002,6 hPa 0,0 l/m 0 min 2 min 0 W/m 19,3 km/h (3 Bft) 97,87 %
07.10.2020 02:14 11,9 C 11,1 C 10,6 C 94 % 1002,5 hPa 0,0 l/m 0 min 0 min 0 W/m 19,3 km/h (3 Bft) 95,74 %
07.10.2020 02:16 11,9 C 11,1 C 10,6 C 94 % 1002,6 hPa 0,0 l/m 0 min 0 min 0 W/m 19,3 km/h (3 Bft) 97,92 %
07.10.2020 02:18 11,9 C 11,1 C 10,6 C 93 % 1002,6 hPa 0,0 l/m 0 min 0 min 0 W/m 12,9 km/h (3 Bft) 97,83 %
07.10.2020 02:20 11,9 C 11,1 C 10,6 C 94 % 1002,6 hPa 0,0 l/m 0 min 0 min 0 W/m 25,7 km/h (4 Bft) 95,74 %
07.10.2020 02:22 11,9 C 11,1 C 10,6 C 94 % 1002,6 hPa 0,0 l/m 0 min 0 min 0 W/m 22,5 km/h (4 Bft) 97,87 %
07.10.2020 02:24 11,9 C 11,1 C 10,6 C 94 % 1002,6 hPa 0,0 l/m 0 min 0 min 0 W/m 25,7 km/h (4 Bft) 95,74 %
07.10.2020 02:26 11,9 C 11,1 C 10,6 C 94 % 1002,6 hPa 0,0 l/m 0 min 0 min 0 W/m 19,3 km/h (3 Bft) 91,49 %
07.10.2020 02:28 11,9 C 11,1 C 10,6 C 94 % 1002,6 hPa 0,0 l/m 0 min 0 min 0 W/m 19,3 km/h (3 Bft) 93,75 %
07.10.2020 02:30 11,9 C 11,1 C 10,6 C 94 % 1002,6 hPa 0,0 l/m 0 min 0 min 0 W/m 12,9 km/h (3 Bft) 93,48 %
07.10.2020 02:32 11,9 C 11,1 C 10,6 C 94 % 1002,6 hPa 0,0 l/m 0 min 0 min 0 W/m 12,9 km/h (3 Bft) 92,00 %
07.10.2020 02:34 11,9 C 11,1 C 10,6 C 94 % 1002,7 hPa 0,0 l/m 0 min 0 min 0 W/m 22,5 km/h (4 Bft) 91,49 %
07.10.2020 02:36 11,9 C 11,1 C 10,6 C 94 % 1002,7 hPa 0,0 l/m 0 min 0 min 0 W/m 16,1 km/h (3 Bft) 93,62 %
07.10.2020 02:38 11,9 C 11,1 C 10,6 C 94 % 1002,7 hPa 0,0 l/m 0 min 0 min 0 W/m 22,5 km/h (4 Bft) 93,62 %
07.10.2020 02:40 11,9 C 11,1 C 10,6 C 94 % 1002,8 hPa 0,0 l/m 0 min 0 min 0 W/m 19,3 km/h (3 Bft) 93,48 %
07.10.2020 02:42 11,9 C 11,1 C 10,6 C 94 % 1002,8 hPa 0,0 l/m 0 min 0 min 0 W/m 16,1 km/h (3 Bft) 89,36 %
07.10.2020 02:44 11,9 C 11,1 C 10,6 C 94 % 1002,7 hPa 0,0 l/m 0 min 0 min 0 W/m 6,4 km/h (2 Bft) 93,62 %
07.10.2020 02:46 11,9 C 11,1 C 10,6 C 94 % 1002,7 hPa 0,0 l/m 0 min 0 min 0 W/m 19,3 km/h (3 Bft) 92,68 %
07.10.2020 02:48 11,9 C 11,1 C 10,6 C 94 % 1002,8 hPa 0,0 l/m 0 min 0 min 0 W/m 19,3 km/h (3 Bft) 95,74 %
07.10.2020 02:50 11,9 C 11,1 C 10,6 C 94 % 1002,8 hPa 0,0 l/m 0 min 0 min 0 W/m 22,5 km/h (4 Bft) 93,62 %
07.10.2020 02:52 11,9 C 11,1 C 10,6 C 94 % 1002,8 hPa 0,0 l/m 0 min 0 min 0 W/m 19,3 km/h (3 Bft) 91,49 %
07.10.2020 02:54 11,9 C 11,1 C 10,6 C 94 % 1002,9 hPa 0,0 l/m 0 min 0 min 0 W/m 19,3 km/h (3 Bft) 95,65 %
07.10.2020 02:56 11,9 C 11,1 C 10,6 C 94 % 1002,8 hPa 0,0 l/m 0 min 0 min 0 W/m 9,7 km/h (2 Bft) 89,36 %
07.10.2020 02:58 11,9 C 11,1 C 10,6 C 94 % 1002,7 hPa 0,0 l/m 0 min 0 min 0 W/m 12,9 km/h (3 Bft) 95,74 %
07.10.2020 03:00 11,9 C 11,1 C 10,6 C 94 % 1002,9 hPa 0,0 l/m 0 min 0 min 0 W/m 12,9 km/h (3 Bft) 93,62 %
07.10.2020 03:02 11,9 C 11,1 C 10,6 C 94 % 1002,9 hPa 0,0 l/m 0 min 0 min 0 W/m 12,9 km/h (3 Bft) 93,62 %
07.10.2020 03:04 11,9 C 11,1 C 10,6 C 94 % 1002,9 hPa 0,0 l/m 0 min 0 min 0 W/m 22,5 km/h (4 Bft) 97,87 %
07.10.2020 03:06 11,9 C 11,1 C 10,6 C 94 % 1002,9 hPa 0,0 l/m 0 min 0 min 0 W/m 16,1 km/h (3 Bft) 98,08 %
07.10.2020 03:08 11,9 C 11,1 C 10,6 C 94 % 1002,9 hPa 0,0 l/m 0 min 0 min 0 W/m 16,1 km/h (3 Bft) 97,56 %
07.10.2020 03:10 11,9 C 11,1 C 10,6 C 94 % 1002,9 hPa 0,0 l/m 0 min 0 min 0 W/m 16,1 km/h (3 Bft) 97,92 %
07.10.2020 03:12 11,9 C 11,1 C 10,6 C 94 % 1003,0 hPa 0,0 l/m 0 min 0 min 0 W/m 12,9 km/h (3 Bft) 97,92 %
07.10.2020 03:14 11,9 C 11,7 C 10,6 C 94 % 1002,9 hPa 0,0 l/m 0 min 0 min 0 W/m 16,1 km/h (3 Bft) 97,87 %
07.10.2020 03:16 11,9 C 11,7 C 10,6 C 94 % 1003,0 hPa 0,0 l/m 0 min 0 min 0 W/m 19,3 km/h (3 Bft) 98,00 %
07.10.2020 03:18 11,9 C 11,7 C 10,6 C 94 % 1003,0 hPa 0,0 l/m 0 min 0 min 0 W/m 3,2 km/h (1 Bft) 97,87 %
07.10.2020 03:20 11,9 C 11,7 C 10,6 C 94 % 1003,0 hPa 0,0 l/m 0 min 0 min 0 W/m 16,1 km/h (3 Bft) 100,00 %
07.10.2020 03:22 12,0 C 11,7 C 11,1 C 94 % 1003,0 hPa 0,0 l/m 0 min 0 min 0 W/m 16,1 km/h (3 Bft) 97,87 %
07.10.2020 03:24 12,0 C 11,7 C 11,1 C 94 % 1003,0 hPa 0,0 l/m 0 min 0 min 0 W/m 12,9 km/h (3 Bft) 100,00 %
07.10.2020 03:26 12,0 C 11,7 C 11,1 C 94 % 1003,0 hPa 0,0 l/m 0 min 0 min 0 W/m 6,4 km/h (2 Bft) 100,00 %
07.10.2020 03:28 12,0 C 11,1 C 11,1 C 94 % 1003,0 hPa 0,0 l/m 0 min 0 min 0 W/m 12,9 km/h (3 Bft) 95,74 %
07.10.2020 03:30 12,0 C 11,1 C 11,1 C 94 % 1003,1 hPa 0,0 l/m 0 min 0 min 0 W/m 22,5 km/h (4 Bft) 100,00 %
07.10.2020 03:32 12,0 C 11,1 C 11,1 C 94 % 1003,0 hPa 0,0 l/m 0 min 0 min 0 W/m 12,9 km/h (3 Bft) 100,00 %
07.10.2020 03:34 12,1 C 11,1 C 11,1 C 94 % 1003,0 hPa 0,0 l/m 0 min 0 min 0 W/m 12,9 km/h (3 Bft) 100,00 %
07.10.2020 03:36 12,0 C 11,7 C 11,1 C 94 % 1003,0 hPa 0,0 l/m 0 min 0 min 0 W/m 16,1 km/h (3 Bft) 97,83 %
07.10.2020 03:38 12,1 C 11,7 C 11,1 C 94 % 1003,2 hPa 0,0 l/m 0 min 0 min 0 W/m 19,3 km/h (3 Bft) 100,00 %
07.10.2020 03:40 12,1 C 11,7 C 11,1 C 94 % 1003,1 hPa 0,0 l/m 0 min 0 min 0 W/m 12,9 km/h (3 Bft) 100,00 %
07.10.2020 03:42 12,1 C 11,7 C 11,1 C 94 % 1003,1 hPa 0,0 l/m 0 min 2 min 0 W/m 9,7 km/h (2 Bft) 100,00 %
07.10.2020 03:44 12,1 C 11,1 C 11,1 C 94 % 1003,2 hPa 0,0 l/m 0 min 2 min 0 W/m 9,7 km/h (2 Bft) 100,00 %
07.10.2020 03:46 12,1 C 10,6 C 10,6 C 94 % 1003,3 hPa 0,0 l/m 0 min 2 min 0 W/m 12,9 km/h (3 Bft) 97,87 %
07.10.2020 03:48 12,1 C 10,6 C 10,6 C 94 % 1003,2 hPa 0,0 l/m 0 min 2 min 0 W/m 12,9 km/h (3 Bft) 100,00 %
07.10.2020 03:50 12,1 C 10,6 C 10,6 C 94 % 1003,2 hPa 0,0 l/m 0 min 2 min 0 W/m 19,3 km/h (3 Bft) 100,00 %
07.10.2020 03:52 12,1 C 10,6 C 10,6 C 94 % 1003,3 hPa 0,0 l/m 0 min 2 min 0 W/m 16,1 km/h (3 Bft) 100,00 %
07.10.2020 03:54 12,1 C 10,6 C 10,6 C 94 % 1003,3 hPa 0,0 l/m 0 min 2 min 0 W/m 12,9 km/h (3 Bft) 100,00 %
07.10.2020 03:56 12,1 C 10,6 C 10,6 C 94 % 1003,3 hPa 0,0 l/m 0 min 2 min 0 W/m 16,1 km/h (3 Bft) 100,00 %
07.10.2020 03:58 12,1 C 10,6 C 10,6 C 94 % 1003,3 hPa 0,0 l/m 0 min 2 min 0 W/m 19,3 km/h (3 Bft) 100,00 %
07.10.2020 04:00 12,1 C 10,6 C 10,6 C 94 % 1003,4 hPa 0,0 l/m 0 min 2 min 0 W/m 16,1 km/h (3 Bft) 100,00 %
07.10.2020 04:02 12,1 C 10,6 C 10,6 C 94 % 1003,4 hPa 0,0 l/m 0 min 2 min 0 W/m 12,9 km/h (3 Bft) 100,00 %
07.10.2020 04:04 12,1 C 10,6 C 10,6 C 94 % 1003,4 hPa 0,0 l/m 0 min 0 min 0 W/m 12,9 km/h (3 Bft) 100,00 %
07.10.2020 04:06 12,1 C 10,6 C 10,6 C 94 % 1003,5 hPa 0,0 l/m 0 min 2 min 0 W/m 19,3 km/h (3 Bft) 97,87 %
07.10.2020 04:08 12,1 C 10,6 C 10,6 C 95 % 1003,4 hPa 0,0 l/m 0 min 2 min 0 W/m 12,9 km/h (3 Bft) 100,00 %
07.10.2020 04:10 12,1 C 10,6 C 10,6 C 95 % 1003,5 hPa 0,0 l/m 0 min 0 min 0 W/m 12,9 km/h (3 Bft) 100,00 %
07.10.2020 04:12 12,1 C 11,1 C 10,6 C 95 % 1003,5 hPa 0,0 l/m 0 min 0 min 0 W/m 12,9 km/h (3 Bft) 100,00 %
07.10.2020 04:14 12,1 C 11,1 C 10,6 C 94 % 1003,6 hPa 0,2 l/m 0 min 0 min 0 W/m 22,5 km/h (4 Bft) 100,00 %
07.10.2020 04:16 12,1 C 11,1 C 10,6 C 95 % 1003,5 hPa 0,0 l/m 0 min 0 min 0 W/m 16,1 km/h (3 Bft) 100,00 %
07.10.2020 04:18 12,1 C 11,1 C 10,6 C 95 % 1003,5 hPa 0,0 l/m 0 min 0 min 0 W/m 25,7 km/h (4 Bft) 100,00 %
07.10.2020 04:20 12,1 C 11,1 C 10,6 C 95 % 1003,6 hPa 0,0 l/m 0 min 0 min 0 W/m 16,1 km/h (3 Bft) 100,00 %
07.10.2020 04:22 12,1 C 11,1 C 10,6 C 95 % 1003,6 hPa 0,0 l/m 0 min 0 min 0 W/m 12,9 km/h (3 Bft) 100,00 %
07.10.2020 04:24 12,1 C 11,1 C 10,6 C 95 % 1003,6 hPa 0,0 l/m 0 min 0 min 0 W/m 16,1 km/h (3 Bft) 100,00 %
07.10.2020 04:26 12,1 C 10,6 C 10,6 C 95 % 1003,6 hPa 0,0 l/m 0 min 0 min 0 W/m 9,7 km/h (2 Bft) 100,00 %
07.10.2020 04:28 12,1 C 11,1 C 10,6 C 95 % 1003,6 hPa 0,0 l/m 0 min 0 min 0 W/m 9,7 km/h (2 Bft) 100,00 %
07.10.2020 04:30 12,1 C 11,1 C 10,6 C 95 % 1003,7 hPa 0,0 l/m 0 min 0 min 0 W/m 16,1 km/h (3 Bft) 100,00 %
07.10.2020 04:32 12,1 C 11,1 C 10,6 C 95 % 1003,6 hPa 0,0 l/m 0 min 0 min 0 W/m 12,9 km/h (3 Bft) 97,87 %
07.10.2020 04:34 12,1 C 11,1 C 10,6 C 95 % 1003,7 hPa 0,0 l/m 0 min 2 min 0 W/m 16,1 km/h (3 Bft) 100,00 %
07.10.2020 04:36 12,1 C 11,1 C 10,6 C 95 % 1003,7 hPa 0,0 l/m 0 min 0 min 0 W/m 12,9 km/h (3 Bft) 100,00 %
07.10.2020 04:38 12,1 C 11,1 C 10,6 C 95 % 1003,8 hPa 0,0 l/m 0 min 0 min 0 W/m 19,3 km/h (3 Bft) 100,00 %
07.10.2020 04:40 12,1 C 11,1 C 10,6 C 95 % 1003,7 hPa 0,0 l/m 0 min 0 min 0 W/m 12,9 km/h (3 Bft) 100,00 %
07.10.2020 04:42 12,1 C 11,1 C 10,6 C 95 % 1003,7 hPa 0,0 l/m 0 min 0 min 0 W/m 16,1 km/h (3 Bft) 97,87 %
07.10.2020 04:44 12,1 C 11,1 C 10,6 C 95 % 1003,8 hPa 0,0 l/m 0 min 0 min 0 W/m 16,1 km/h (3 Bft) 100,00 %
07.10.2020 04:46 12,1 C 11,1 C 10,6 C 95 % 1003,8 hPa 0,0 l/m 0 min 0 min 0 W/m 12,9 km/h (3 Bft) 97,87 %
07.10.2020 04:48 12,1 C 11,1 C 10,6 C 95 % 1003,9 hPa 0,0 l/m 0 min 0 min 0 W/m 12,9 km/h (3 Bft) 100,00 %
07.10.2020 04:50 12,1 C 11,1 C 11,1 C 95 % 1003,9 hPa 0,0 l/m 0 min 0 min 0 W/m 12,9 km/h (3 Bft) 95,74 %
07.10.2020 04:52 12,1 C 11,1 C 10,6 C 95 % 1003,8 hPa 0,0 l/m 0 min 0 min 0 W/m 12,9 km/h (3 Bft) 100,00 %
07.10.2020 04:54 12,1 C 11,1 C 10,6 C 95 % 1003,9 hPa 0,0 l/m 0 min 0 min 0 W/m 16,1 km/h (3 Bft) 100,00 %
07.10.2020 04:56 12,0 C 11,1 C 10,6 C 95 % 1003,9 hPa 0,0 l/m 0 min 0 min 0 W/m 19,3 km/h (3 Bft) 100,00 %
07.10.2020 04:58 12,0 C 11,1 C 10,6 C 95 % 1003,9 hPa 0,0 l/m 0 min 2 min 0 W/m 22,5 km/h (4 Bft) 100,00 %
07.10.2020 05:00 12,0 C 11,1 C 10,6 C 95 % 1004,0 hPa 0,0 l/m 0 min 0 min 0 W/m 25,7 km/h (4 Bft) 97,83 %
07.10.2020 05:02 12,0 C 11,1 C 10,6 C 95 % 1004,0 hPa 0,0 l/m 0 min 0 min 0 W/m 16,1 km/h (3 Bft) 93,62 %
07.10.2020 05:04 12,0 C 11,1 C 10,6 C 95 % 1004,1 hPa 0,0 l/m 0 min 0 min 0 W/m 6,4 km/h (2 Bft) 95,74 %
07.10.2020 05:06 12,0 C 11,1 C 10,6 C 95 % 1004,1 hPa 0,0 l/m 0 min 0 min 0 W/m 12,9 km/h (3 Bft) 97,87 %
07.10.2020 05:08 12,0 C 11,1 C 10,6 C 95 % 1004,1 hPa 0,0 l/m 0 min 0 min 0 W/m 12,9 km/h (3 Bft) 97,87 %
07.10.2020 05:10 12,0 C 11,1 C 10,6 C 95 % 1004,1 hPa 0,0 l/m 0 min 0 min 0 W/m 12,9 km/h (3 Bft) 97,87 %
07.10.2020 05:12 12,0 C 11,1 C 10,6 C 95 % 1004,2 hPa 0,0 l/m 0 min 0 min 0 W/m 9,7 km/h (2 Bft) 95,65 %
07.10.2020 05:14 12,0 C 11,1 C 10,6 C 95 % 1004,2 hPa 0,0 l/m 0 min 0 min 0 W/m 12,9 km/h (3 Bft) 97,87 %
07.10.2020 05:16 12,0 C 11,1 C 10,6 C 95 % 1004,3 hPa 0,0 l/m 0 min 0 min 0 W/m 9,7 km/h (2 Bft) 96,00 %
07.10.2020 05:18 12,0 C 11,1 C 10,6 C 95 % 1004,3 hPa 0,0 l/m 0 min 0 min 0 W/m 19,3 km/h (3 Bft) 93,62 %
07.10.2020 05:20 12,0 C 11,1 C 10,6 C 95 % 1004,3 hPa 0,0 l/m 0 min 0 min 0 W/m 12,9 km/h (3 Bft) 93,75 %
07.10.2020 05:22 12,0 C 11,1 C 10,6 C 95 % 1004,3 hPa 0,0 l/m 0 min 0 min 0 W/m 9,7 km/h (2 Bft) 97,83 %
07.10.2020 05:24 12,0 C 11,1 C 10,6 C 95 % 1004,4 hPa 0,0 l/m 0 min 0 min 0 W/m 12,9 km/h (3 Bft) 95,74 %
07.10.2020 05:26 12,0 C 11,1 C 10,6 C 95 % 1004,4 hPa 0,0 l/m 0 min 0 min 0 W/m 12,9 km/h (3 Bft) 93,62 %
07.10.2020 05:28 12,0 C 11,7 C 11,1 C 95 % 1004,5 hPa 0,0 l/m 0 min 0 min 0 W/m 19,3 km/h (3 Bft) 93,62 %
07.10.2020 05:30 12,0 C 11,1 C 11,1 C 95 % 1004,5 hPa 0,0 l/m 0 min 0 min 0 W/m 6,4 km/h (2 Bft) 57,45 %
07.10.2020 05:32 12,0 C 11,1 C 11,1 C 95 % 1004,5 hPa 0,0 l/m 0 min 0 min 0 W/m 12,9 km/h (3 Bft) 93,62 %
07.10.2020 05:34 12,0 C 11,1 C 11,1 C 95 % 1004,5 hPa 0,0 l/m 0 min 0 min 0 W/m 9,7 km/h (2 Bft) 89,13 %
07.10.2020 05:36 12,1 C 11,7 C 11,1 C 95 % 1004,5 hPa 0,0 l/m 0 min 0 min 0 W/m 6,4 km/h (2 Bft) 91,49 %
07.10.2020 05:38 12,0 C 11,7 C 11,1 C 95 % 1004,5 hPa 0,0 l/m 0 min 0 min 0 W/m 6,4 km/h (2 Bft) 93,62 %
07.10.2020 05:40 12,0 C 11,7 C 11,1 C 95 % 1004,5 hPa 0,0 l/m 0 min 0 min 0 W/m 12,9 km/h (3 Bft) 91,49 %
07.10.2020 05:42 12,0 C 11,7 C 11,1 C 95 % 1004,5 hPa 0,0 l/m 0 min 0 min 0 W/m 12,9 km/h (3 Bft) 91,49 %
07.10.2020 05:44 12,1 C 11,7 C 11,1 C 95 % 1004,6 hPa 0,0 l/m 0 min 0 min 0 W/m 16,1 km/h (3 Bft) 93,48 %
07.10.2020 05:46 12,0 C 11,7 C 11,1 C 95 % 1004,6 hPa 0,0 l/m 0 min 0 min 0 W/m 12,9 km/h (3 Bft) 95,74 %
07.10.2020 05:48 12,1 C 11,7 C 11,1 C 95 % 1004,7 hPa 0,0 l/m 0 min 0 min 0 W/m 16,1 km/h (3 Bft) 93,62 %
07.10.2020 05:50 12,1 C 11,7 C 11,1 C 95 % 1004,7 hPa 0,0 l/m 0 min 0 min 0 W/m 16,1 km/h (3 Bft) 97,87 %
07.10.2020 05:52 12,1 C 11,7 C 11,1 C 95 % 1004,7 hPa 0,0 l/m 0 min 0 min 0 W/m 16,1 km/h (3 Bft) 93,62 %
07.10.2020 05:54 12,1 C 11,7 C 11,1 C 95 % 1004,7 hPa 0,0 l/m 0 min 2 min 0 W/m 9,7 km/h (2 Bft) 95,74 %
07.10.2020 05:56 12,1 C 10,6 C 10,6 C 95 % 1004,8 hPa 0,0 l/m 0 min 2 min 0 W/m 19,3 km/h (3 Bft) 95,65 %
07.10.2020 05:58 12,1 C 10,6 C 10,6 C 95 % 1004,9 hPa 0,2 l/m 0 min 2 min 0 W/m 9,7 km/h (2 Bft) 95,74 %
07.10.2020 06:00 12,1 C 10,6 C 10,6 C 95 % 1004,9 hPa 0,2 l/m 0 min 2 min 0 W/m 16,1 km/h (3 Bft) 93,62 %
07.10.2020 06:02 12,1 C 10,6 C 10,6 C 95 % 1004,9 hPa 0,2 l/m 0 min 2 min 0 W/m 9,7 km/h (2 Bft) 95,74 %
07.10.2020 06:04 12,1 C 10,6 C 10,6 C 95 % 1004,9 hPa 0,2 l/m 0 min 2 min 0 W/m 19,3 km/h (3 Bft) 97,87 %
07.10.2020 06:08 12,1 C 10,6 C 10,0 C 95 % 1004,9 hPa 0,2 l/m 0 min 4 min 0 W/m 16,1 km/h (3 Bft) 97,85 %
07.10.2020 06:10 12,1 C 10,6 C 10,0 C 95 % 1004,9 hPa 0,2 l/m 0 min 2 min 0 W/m 12,9 km/h (3 Bft) 95,74 %
07.10.2020 06:12 12,1 C 10,6 C 10,0 C 95 % 1005,0 hPa 0,0 l/m 0 min 2 min 0 W/m 16,1 km/h (3 Bft) 97,87 %
07.10.2020 06:14 12,1 C 10,6 C 10,0 C 95 % 1005,0 hPa 0,0 l/m 0 min 2 min 0 W/m 12,9 km/h (3 Bft) 97,87 %
07.10.2020 06:16 12,1 C 10,6 C 10,0 C 96 % 1005,0 hPa 0,0 l/m 0 min 2 min 0 W/m 19,3 km/h (3 Bft) 97,87 %
07.10.2020 06:18 12,0 C 10,6 C 10,0 C 96 % 1005,1 hPa 0,0 l/m 0 min 2 min 0 W/m 12,9 km/h (3 Bft) 97,87 %
07.10.2020 06:20 12,0 C 10,6 C 10,0 C 96 % 1005,0 hPa 0,2 l/m 0 min 2 min 0 W/m 16,1 km/h (3 Bft) 97,83 %
07.10.2020 06:22 12,0 C 10,6 C 10,0 C 96 % 1005,2 hPa 0,0 l/m 0 min 2 min 0 W/m 19,3 km/h (3 Bft) 97,87 %
07.10.2020 06:24 12,0 C 10,6 C 10,0 C 96 % 1005,2 hPa 0,0 l/m 0 min 2 min 0 W/m 16,1 km/h (3 Bft) 97,87 %
07.10.2020 06:26 11,9 C 10,6 C 10,0 C 96 % 1005,2 hPa 0,0 l/m 0 min 2 min 0 W/m 3,2 km/h (1 Bft) 100,00 %
07.10.2020 06:28 11,9 C 10,6 C 10,0 C 96 % 1005,2 hPa 0,0 l/m 0 min 2 min 0 W/m 19,3 km/h (3 Bft) 100,00 %
07.10.2020 06:30 11,9 C 10,6 C 10,0 C 96 % 1005,2 hPa 0,0 l/m 0 min 2 min 0 W/m 12,9 km/h (3 Bft) 100,00 %
07.10.2020 06:32 11,9 C 10,6 C 10,0 C 96 % 1005,4 hPa 0,0 l/m 0 min 2 min 0 W/m 12,9 km/h (3 Bft) 100,00 %
07.10.2020 06:34 11,9 C 10,6 C 10,0 C 96 % 1005,4 hPa 0,0 l/m 0 min 2 min 0 W/m 6,4 km/h (2 Bft) 100,00 %
07.10.2020 06:36 11,8 C 10,6 C 10,0 C 96 % 1005,5 hPa 0,0 l/m 0 min 2 min 0 W/m 9,7 km/h (2 Bft) 100,00 %
07.10.2020 06:38 11,8 C 10,6 C 10,0 C 96 % 1005,4 hPa 0,0 l/m 0 min 2 min 0 W/m 16,1 km/h (3 Bft) 100,00 %
07.10.2020 06:40 11,8 C 10,6 C 10,0 C 96 % 1005,4 hPa 0,0 l/m 0 min 2 min 0 W/m 9,7 km/h (2 Bft) 100,00 %
07.10.2020 06:42 11,8 C 10,6 C 10,0 C 96 % 1005,5 hPa 0,2 l/m 0 min 2 min 0 W/m 3,2 km/h (1 Bft) 100,00 %
07.10.2020 06:44 11,8 C 10,6 C 10,0 C 96 % 1005,6 hPa 0,2 l/m 0 min 2 min 0 W/m 0,0 km/h (0 Bft) 97,87 %
07.10.2020 06:46 11,8 C 10,6 C 10,0 C 96 % 1005,6 hPa 0,0 l/m 0 min 2 min 0 W/m 0,0 km/h (0 Bft) 100,00 %
07.10.2020 06:48 11,8 C 10,6 C 10,0 C 96 % 1005,6 hPa 0,4 l/m 0 min 2 min 0 W/m 12,9 km/h (3 Bft) 100,00 %
07.10.2020 06:50 11,8 C 10,6 C 10,0 C 96 % 1005,6 hPa 0,0 l/m 0 min 2 min 0 W/m 12,9 km/h (3 Bft) 100,00 %
07.10.2020 06:52 11,8 C 10,6 C 10,0 C 97 % 1005,6 hPa 0,2 l/m 0 min 2 min 0 W/m 12,9 km/h (3 Bft) 100,00 %
07.10.2020 06:54 11,7 C 10,6 C 10,0 C 97 % 1005,7 hPa 0,2 l/m 0 min 2 min 0 W/m 12,9 km/h (3 Bft) 100,00 %
07.10.2020 06:56 11,7 C 10,6 C 10,0 C 97 % 1005,6 hPa 0,2 l/m 0 min 2 min 0 W/m 6,4 km/h (2 Bft) 100,00 %
07.10.2020 06:58 11,7 C 10,6 C 10,0 C 97 % 1005,7 hPa 0,2 l/m 0 min 2 min 0 W/m 12,9 km/h (3 Bft) 100,00 %
07.10.2020 07:00 11,7 C 10,6 C 10,0 C 97 % 1005,8 hPa 0,2 l/m 0 min 2 min 0 W/m 12,9 km/h (3 Bft) 100,00 %
07.10.2020 07:02 11,7 C 10,6 C 10,0 C 97 % 1005,8 hPa 0,0 l/m 0 min 2 min 0 W/m 9,7 km/h (2 Bft) 98,00 %
07.10.2020 07:04 11,7 C 10,6 C 10,0 C 97 % 1005,8 hPa 0,2 l/m 0 min 2 min 0 W/m 12,9 km/h (3 Bft) 97,87 %
07.10.2020 07:06 11,7 C 10,6 C 10,0 C 97 % 1005,9 hPa 0,2 l/m 0 min 2 min 0 W/m 9,7 km/h (2 Bft) 100,00 %
07.10.2020 07:08 11,7 C 10,6 C 10,0 C 97 % 1006,2 hPa 0,2 l/m 0 min 2 min 0 W/m 22,5 km/h (4 Bft) 100,00 %
07.10.2020 07:10 11,7 C 10,6 C 10,0 C 97 % 1006,0 hPa 0,0 l/m 0 min 2 min 0 W/m 12,9 km/h (3 Bft) 100,00 %
07.10.2020 07:12 11,6 C 10,6 C 10,0 C 97 % 1006,1 hPa 0,2 l/m 0 min 2 min 0 W/m 19,3 km/h (3 Bft) 100,00 %
07.10.2020 07:14 11,6 C 10,6 C 10,0 C 97 % 1006,1 hPa 0,0 l/m 0 min 2 min 0 W/m 22,5 km/h (4 Bft) 100,00 %
07.10.2020 07:16 11,6 C 10,6 C 10,0 C 97 % 1006,2 hPa 0,2 l/m 0 min 2 min 0 W/m 16,1 km/h (3 Bft) 100,00 %
07.10.2020 07:18 11,6 C 10,6 C 10,0 C 97 % 1006,1 hPa 0,0 l/m 0 min 2 min 0 W/m 19,3 km/h (3 Bft) 97,83 %
07.10.2020 07:20 11,6 C 10,0 C 10,0 C 97 % 1006,1 hPa 0,0 l/m 0 min 2 min 0 W/m 9,7 km/h (2 Bft) 100,00 %
07.10.2020 07:22 11,6 C 10,0 C 10,0 C 97 % 1006,2 hPa 0,2 l/m 0 min 2 min 0 W/m 22,5 km/h (4 Bft) 100,00 %
07.10.2020 07:24 11,6 C 10,6 C 10,0 C 97 % 1006,2 hPa 0,2 l/m 0 min 2 min 0 W/m 12,9 km/h (3 Bft) 100,00 %
07.10.2020 07:26 11,6 C 10,6 C 10,0 C 97 % 1006,3 hPa 0,0 l/m 0 min 2 min 0 W/m 16,1 km/h (3 Bft) 97,87 %
07.10.2020 07:28 11,6 C 10,6 C 10,0 C 97 % 1006,4 hPa 0,2 l/m 0 min 2 min 0 W/m 9,7 km/h (2 Bft) 100,00 %
07.10.2020 07:30 11,6 C 10,6 C 10,0 C 97 % 1006,4 hPa 0,2 l/m 0 min 2 min 0 W/m 16,1 km/h (3 Bft) 100,00 %
07.10.2020 07:32 11,6 C 10,6 C 10,0 C 97 % 1006,4 hPa 0,2 l/m 0 min 2 min 0 W/m 19,3 km/h (3 Bft) 97,92 %
07.10.2020 07:34 11,6 C 10,6 C 10,0 C 97 % 1006,5 hPa 0,0 l/m 0 min 2 min 0 W/m 9,7 km/h (2 Bft) 100,00 %
07.10.2020 07:36 11,6 C 10,6 C 10,0 C 97 % 1006,6 hPa 0,2 l/m 0 min 2 min 0 W/m 16,1 km/h (3 Bft) 97,87 %
07.10.2020 07:38 11,6 C 10,6 C 10,0 C 98 % 1006,6 hPa 0,2 l/m 0 min 2 min 0 W/m 16,1 km/h (3 Bft) 97,87 %
07.10.2020 07:40 11,6 C 10,6 C 10,0 C 98 % 1006,5 hPa 0,4 l/m 0 min 2 min 0 W/m 9,7 km/h (2 Bft) 100,00 %
07.10.2020 07:42 11,6 C 10,6 C 10,0 C 98 % 1006,6 hPa 0,2 l/m 0 min 2 min 0 W/m 16,1 km/h (3 Bft) 100,00 %
07.10.2020 07:44 11,6 C 10,6 C 10,0 C 98 % 1006,6 hPa 0,0 l/m 0 min 2 min 0 W/m 12,9 km/h (3 Bft) 97,87 %
07.10.2020 07:46 11,5 C 10,6 C 10,0 C 98 % 1006,7 hPa 0,2 l/m 0 min 2 min 0 W/m 6,4 km/h (2 Bft) 95,74 %
07.10.2020 07:48 11,5 C 10,6 C 10,0 C 98 % 1006,8 hPa 0,2 l/m 0 min 2 min 0 W/m 19,3 km/h (3 Bft) 97,87 %
07.10.2020 07:50 11,5 C 10,0 C 10,0 C 98 % 1006,8 hPa 0,2 l/m 0 min 2 min 0 W/m 16,1 km/h (3 Bft) 97,87 %
07.10.2020 07:52 11,5 C 10,0 C 10,0 C 98 % 1006,9 hPa 0,4 l/m 0 min 2 min 0 W/m 12,9 km/h (3 Bft) 97,83 %
07.10.2020 07:54 11,4 C 10,0 C 10,0 C 98 % 1006,9 hPa 0,2 l/m 0 min 2 min 0 W/m 12,9 km/h (3 Bft) 95,74 %
07.10.2020 07:56 11,3 C 10,0 C 9,4 C 98 % 1006,9 hPa 0,4 l/m 0 min 2 min 0 W/m 16,1 km/h (3 Bft) 97,87 %
07.10.2020 07:58 11,3 C 9,4 C 9,4 C 98 % 1006,9 hPa 0,2 l/m 0 min 2 min 0 W/m 16,1 km/h (3 Bft) 97,87 %
07.10.2020 08:00 11,2 C 9,4 C 9,4 C 98 % 1007,0 hPa 0,0 l/m 0 min 2 min 0 W/m 6,4 km/h (2 Bft) 97,87 %
07.10.2020 08:02 11,2 C 9,4 C 9,4 C 98 % 1007,1 hPa 0,4 l/m 0 min 2 min 0 W/m 6,4 km/h (2 Bft) 95,83 %
07.10.2020 08:04 11,1 C 9,4 C 9,4 C 97 % 1007,1 hPa 0,2 l/m 0 min 2 min 0 W/m 6,4 km/h (2 Bft) 95,83 %
07.10.2020 08:06 11,0 C 9,4 C 9,4 C 97 % 1007,1 hPa 0,2 l/m 0 min 2 min 0 W/m 6,4 km/h (2 Bft) 95,92 %
07.10.2020 08:08 11,0 C 9,4 C 9,4 C 97 % 1007,2 hPa 0,0 l/m 0 min 2 min 0 W/m 0,0 km/h (0 Bft) 91,67 %
07.10.2020 08:10 10,9 C 9,4 C 9,4 C 97 % 1007,2 hPa 0,0 l/m 0 min 2 min 0 W/m 3,2 km/h (1 Bft) 97,14 %
07.10.2020 08:12 10,9 C 9,4 C 9,4 C 98 % 1007,3 hPa 0,0 l/m 0 min 2 min 0 W/m 3,2 km/h (1 Bft) 95,74 %
07.10.2020 08:14 10,9 C 9,4 C 9,4 C 98 % 1007,3 hPa 0,2 l/m 0 min 0 min 0 W/m 3,2 km/h (1 Bft) 91,67 %
07.10.2020 08:16 10,8 C 9,4 C 9,4 C 98 % 1007,4 hPa 0,0 l/m 0 min 0 min 0 W/m 0,0 km/h (0 Bft) 95,74 %
07.10.2020 08:18 10,8 C 9,4 C 9,4 C 98 % 1007,4 hPa 0,0 l/m 0 min 0 min 0 W/m 3,2 km/h (1 Bft) 96,23 %
07.10.2020 08:20 10,8 C 9,4 C 9,4 C 98 % 1007,5 hPa 0,0 l/m 0 min 2 min 0 W/m 0,0 km/h (0 Bft) 95,83 %
07.10.2020 08:22 10,8 C 10,0 C 9,4 C 98 % 1007,5 hPa 0,0 l/m 0 min 2 min 0 W/m 9,7 km/h (2 Bft) 93,88 %
07.10.2020 08:24 10,9 C 10,0 C 9,4 C 98 % 1007,6 hPa 0,0 l/m 0 min 2 min 0 W/m 0,0 km/h (0 Bft) 97,30 %
07.10.2020 08:26 10,9 C 10,0 C 10,0 C 98 % 1007,6 hPa 0,0 l/m 0 min 2 min 0 W/m 9,7 km/h (2 Bft) 95,83 %
07.10.2020 08:28 10,9 C 10,0 C 10,0 C 98 % 1007,7 hPa 0,0 l/m 0 min 2 min 0 W/m 9,7 km/h (2 Bft) 93,62 %
07.10.2020 08:30 10,9 C 10,0 C 10,0 C 98 % 1007,7 hPa 0,0 l/m 0 min 0 min 0 W/m 12,9 km/h (3 Bft) 93,48 %
07.10.2020 08:32 11,0 C 10,0 C 10,0 C 98 % 1007,7 hPa 0,0 l/m 0 min 0 min 7 W/m 9,7 km/h (2 Bft) 95,74 %
07.10.2020 08:34 11,1 C 10,6 C 10,0 C 98 % 1007,7 hPa 0,0 l/m 0 min 0 min 9 W/m 12,9 km/h (3 Bft) 93,62 %
07.10.2020 08:36 11,1 C 10,6 C 10,0 C 98 % 1007,7 hPa 0,0 l/m 0 min 0 min 16 W/m 6,4 km/h (2 Bft) 98,18 %
07.10.2020 08:38 11,2 C 10,6 C 10,0 C 98 % 1007,8 hPa 0,0 l/m 0 min 0 min 25 W/m 3,2 km/h (1 Bft) 97,92 %
07.10.2020 08:40 11,2 C 10,6 C 10,0 C 98 % 1007,8 hPa 0,0 l/m 0 min 0 min 36 W/m 6,4 km/h (2 Bft) 97,30 %
07.10.2020 08:42 11,3 C 10,6 C 10,0 C 98 % 1007,9 hPa 0,0 l/m 0 min 0 min 38 W/m 0,0 km/h (0 Bft) 97,87 %
07.10.2020 08:44 11,3 C 10,6 C 10,0 C 98 % 1007,9 hPa 0,0 l/m 0 min 0 min 30 W/m 12,9 km/h (3 Bft) 97,87 %
07.10.2020 08:46 11,3 C 10,6 C 10,0 C 98 % 1007,9 hPa 0,0 l/m 0 min 0 min 22 W/m 6,4 km/h (2 Bft) 95,74 %
07.10.2020 08:48 11,4 C 10,6 C 10,0 C 98 % 1008,0 hPa 0,0 l/m 0 min 0 min 18 W/m 12,9 km/h (3 Bft) 95,74 %
07.10.2020 08:50 11,4 C 10,6 C 10,0 C 98 % 1008,0 hPa 0,0 l/m 0 min 0 min 18 W/m 12,9 km/h (3 Bft) 96,30 %
07.10.2020 08:52 11,4 C 10,6 C 10,0 C 98 % 1008,1 hPa 0,0 l/m 0 min 0 min 19 W/m 0,0 km/h (0 Bft) 100,00 %
07.10.2020 08:54 11,4 C 10,6 C 10,0 C 98 % 1008,1 hPa 0,0 l/m 0 min 0 min 22 W/m 3,2 km/h (1 Bft) 97,96 %
07.10.2020 08:56 11,4 C 10,6 C 10,0 C 98 % 1008,3 hPa 0,0 l/m 0 min 0 min 22 W/m 9,7 km/h (2 Bft) 100,00 %
07.10.2020 08:58 11,4 C 10,6 C 10,0 C 98 % 1008,3 hPa 0,0 l/m 0 min 0 min 17 W/m 9,7 km/h (2 Bft) 100,00 %
07.10.2020 09:00 11,4 C 10,6 C 10,0 C 98 % 1008,3 hPa 0,0 l/m 0 min 0 min 17 W/m 6,4 km/h (2 Bft) 97,96 %
07.10.2020 09:02 11,4 C 10,6 C 10,0 C 98 % 1008,3 hPa 0,0 l/m 0 min 0 min 24 W/m 3,2 km/h (1 Bft) 95,74 %
07.10.2020 09:04 11,4 C 10,6 C 10,0 C 98 % 1008,4 hPa 0,0 l/m 0 min 0 min 26 W/m 19,3 km/h (3 Bft) 100,00 %
07.10.2020 09:06 11,4 C 10,6 C 10,0 C 98 % 1008,4 hPa 0,0 l/m 0 min 0 min 28 W/m 0,0 km/h (0 Bft) 97,87 %
07.10.2020 09:08 11,4 C 10,6 C 10,0 C 98 % 1008,4 hPa 0,0 l/m 0 min 0 min 33 W/m 9,7 km/h (2 Bft) 97,14 %
07.10.2020 09:10 11,4 C 10,6 C 10,0 C 99 % 1008,4 hPa 0,0 l/m 0 min 0 min 47 W/m 12,9 km/h (3 Bft) 97,87 %
07.10.2020 09:12 11,4 C 10,6 C 10,0 C 99 % 1008,4 hPa 0,0 l/m 0 min 0 min 64 W/m 6,4 km/h (2 Bft) 97,87 %
07.10.2020 09:14 11,5 C 11,1 C 10,0 C 99 % 1008,5 hPa 0,0 l/m 0 min 0 min 67 W/m 19,3 km/h (3 Bft) 97,87 %
07.10.2020 09:16 11,5 C 11,1 C 10,0 C 99 % 1008,6 hPa 0,0 l/m 0 min 0 min 77 W/m 12,9 km/h (3 Bft) 98,15 %
07.10.2020 09:18 11,5 C 11,1 C 10,0 C 99 % 1008,6 hPa 0,0 l/m 0 min 0 min 74 W/m 16,1 km/h (3 Bft) 97,96 %
07.10.2020 09:20 11,5 C 11,1 C 10,0 C 98 % 1008,7 hPa 0,0 l/m 0 min 0 min 60 W/m 12,9 km/h (3 Bft) 95,83 %
07.10.2020 09:22 11,6 C 10,6 C 10,0 C 99 % 1008,6 hPa 0,0 l/m 0 min 0 min 42 W/m 3,2 km/h (1 Bft) 95,92 %
07.10.2020 09:24 11,5 C 11,1 C 10,0 C 98 % 1008,6 hPa 0,0 l/m 0 min 0 min 70 W/m 9,7 km/h (2 Bft) 97,87 %
07.10.2020 09:26 11,5 C 11,1 C 10,0 C 98 % 1008,6 hPa 0,0 l/m 0 min 0 min 76 W/m 12,9 km/h (3 Bft) 100,00 %
07.10.2020 09:28 11,5 C 11,1 C 10,0 C 98 % 1008,7 hPa 0,0 l/m 0 min 0 min 72 W/m 9,7 km/h (2 Bft) 97,87 %
07.10.2020 09:30 11,6 C 11,1 C 10,0 C 98 % 1008,7 hPa 0,0 l/m 0 min 0 min 73 W/m 0,0 km/h (0 Bft) 97,83 %
07.10.2020 09:32 11,6 C 11,1 C 10,0 C 98 % 1008,8 hPa 0,0 l/m 0 min 0 min 92 W/m 6,4 km/h (2 Bft) 96,36 %
07.10.2020 09:34 11,6 C 11,1 C 10,6 C 98 % 1008,8 hPa 0,0 l/m 0 min 0 min 76 W/m 0,0 km/h (0 Bft) 97,96 %
07.10.2020 09:36 11,6 C 11,1 C 10,6 C 98 % 1008,9 hPa 0,0 l/m 0 min 0 min 70 W/m 22,5 km/h (4 Bft) 97,92 %
07.10.2020 09:38 11,6 C 11,1 C 10,6 C 98 % 1008,9 hPa 0,0 l/m 0 min 0 min 86 W/m 3,2 km/h (1 Bft) 97,92 %
07.10.2020 09:40 11,6 C 11,1 C 10,6 C 98 % 1008,9 hPa 0,0 l/m 0 min 0 min 100 W/m 16,1 km/h (3 Bft) 97,30 %
07.10.2020 09:42 11,6 C 11,1 C 10,6 C 99 % 1008,9 hPa 0,0 l/m 0 min 0 min 94 W/m 3,2 km/h (1 Bft) 97,96 %
07.10.2020 09:44 11,7 C 11,7 C 10,6 C 99 % 1009,0 hPa 0,0 l/m 0 min 0 min 101 W/m 6,4 km/h (2 Bft) 93,62 %
07.10.2020 09:46 11,7 C 11,7 C 10,6 C 99 % 1009,0 hPa 0,0 l/m 0 min 0 min 138 W/m 3,2 km/h (1 Bft) 95,74 %
07.10.2020 09:48 11,7 C 11,7 C 10,6 C 99 % 1009,0 hPa 0,0 l/m 2 min 0 min 179 W/m 6,4 km/h (2 Bft) 92,45 %
07.10.2020 09:50 11,7 C 11,7 C 10,6 C 99 % 1009,0 hPa 0,0 l/m 0 min 0 min 102 W/m 3,2 km/h (1 Bft) 81,63 %
07.10.2020 09:52 11,8 C 11,7 C 10,6 C 99 % 1009,0 hPa 0,0 l/m 0 min 0 min 77 W/m 9,7 km/h (2 Bft) 70,27 %
07.10.2020 09:54 11,8 C 11,7 C 10,6 C 99 % 1009,1 hPa 0,0 l/m 0 min 0 min 84 W/m 19,3 km/h (3 Bft) 85,71 %
07.10.2020 09:56 11,8 C 11,7 C 10,6 C 98 % 1009,1 hPa 0,0 l/m 0 min 0 min 92 W/m 0,0 km/h (0 Bft) 79,17 %
07.10.2020 09:58 11,8 C 11,7 C 10,6 C 98 % 1009,2 hPa 0,0 l/m 0 min 0 min 76 W/m 6,4 km/h (2 Bft) 91,49 %
07.10.2020 10:00 11,8 C 11,7 C 10,6 C 98 % 1009,2 hPa 0,0 l/m 0 min 0 min 116 W/m 16,1 km/h (3 Bft) 85,11 %
07.10.2020 10:02 11,8 C 11,7 C 10,6 C 98 % 1009,1 hPa 0,0 l/m 0 min 0 min 103 W/m 6,4 km/h (2 Bft) 95,65 %
07.10.2020 10:04 11,8 C 11,7 C 10,6 C 98 % 1009,2 hPa 0,0 l/m 0 min 0 min 112 W/m 3,2 km/h (1 Bft) 97,67 %
07.10.2020 10:06 11,8 C 11,7 C 10,6 C 98 % 1009,3 hPa 0,0 l/m 0 min 0 min 124 W/m 3,2 km/h (1 Bft) 91,49 %
07.10.2020 10:08 11,8 C 11,7 C 10,6 C 98 % 1009,3 hPa 0,0 l/m 2 min 0 min 181 W/m 22,5 km/h (4 Bft) 93,75 %
07.10.2020 10:10 11,9 C 11,7 C 10,6 C 98 % 1009,4 hPa 0,0 l/m 0 min 0 min 166 W/m 16,1 km/h (3 Bft) 51,06 %
07.10.2020 10:12 11,9 C 11,7 C 10,6 C 98 % 1009,4 hPa 0,0 l/m 0 min 0 min 109 W/m 9,7 km/h (2 Bft) 80,85 %
07.10.2020 10:14 11,9 C 11,7 C 10,6 C 98 % 1009,5 hPa 0,0 l/m 0 min 0 min 94 W/m 12,9 km/h (3 Bft) 86,96 %
07.10.2020 10:16 11,9 C 11,7 C 10,6 C 98 % 1009,5 hPa 0,0 l/m 0 min 0 min 122 W/m 0,0 km/h (0 Bft) 78,72 %
07.10.2020 10:18 11,9 C 12,2 C 10,6 C 98 % 1009,5 hPa 0,0 l/m 0 min 0 min 149 W/m 12,9 km/h (3 Bft) 93,02 %
07.10.2020 10:20 12,0 C 12,2 C 10,6 C 98 % 1009,5 hPa 0,0 l/m 0 min 0 min 151 W/m 9,7 km/h (2 Bft) 85,71 %
07.10.2020 10:22 12,0 C 12,8 C 10,6 C 98 % 1009,6 hPa 0,0 l/m 0 min 0 min 131 W/m 19,3 km/h (3 Bft) 94,00 %
07.10.2020 10:24 12,1 C 13,3 C 10,6 C 98 % 1009,7 hPa 0,0 l/m 0 min 0 min 132 W/m 3,2 km/h (1 Bft) 89,36 %
07.10.2020 10:26 12,1 C 12,8 C 10,6 C 98 % 1009,8 hPa 0,0 l/m 0 min 0 min 122 W/m 16,1 km/h (3 Bft) 95,83 %
07.10.2020 10:28 12,1 C 12,8 C 10,6 C 98 % 1009,7 hPa 0,0 l/m 0 min 0 min 128 W/m 3,2 km/h (1 Bft) 91,49 %
07.10.2020 10:30 12,2 C 12,8 C 11,1 C 98 % 1009,8 hPa 0,0 l/m 2 min 0 min 197 W/m 0,0 km/h (0 Bft) 94,44 %
07.10.2020 10:32 12,2 C 12,8 C 11,1 C 98 % 1009,9 hPa 0,0 l/m 0 min 0 min 149 W/m 12,9 km/h (3 Bft) 96,36 %
07.10.2020 10:34 12,2 C 12,8 C 11,1 C 98 % 1009,9 hPa 0,0 l/m 0 min 0 min 127 W/m 3,2 km/h (1 Bft) 97,92 %
07.10.2020 10:36 12,3 C 12,8 C 11,1 C 98 % 1009,9 hPa 0,0 l/m 0 min 0 min 125 W/m 0,0 km/h (0 Bft) 93,62 %
07.10.2020 10:38 12,3 C 12,8 C 11,1 C 98 % 1009,9 hPa 0,0 l/m 0 min 0 min 136 W/m 3,2 km/h (1 Bft) 100,00 %
07.10.2020 10:40 12,3 C 12,8 C 11,1 C 98 % 1010,0 hPa 0,0 l/m 0 min 0 min 145 W/m 12,9 km/h (3 Bft) 89,36 %
07.10.2020 10:42 12,3 C 12,8 C 10,6 C 98 % 1010,1 hPa 0,0 l/m 0 min 0 min 137 W/m 16,1 km/h (3 Bft) 95,74 %
07.10.2020 10:44 12,3 C 12,8 C 11,1 C 97 % 1010,0 hPa 0,0 l/m 0 min 0 min 95 W/m 3,2 km/h (1 Bft) 91,43 %
07.10.2020 10:46 12,4 C 12,2 C 10,6 C 97 % 1010,0 hPa 0,0 l/m 0 min 0 min 72 W/m 12,9 km/h (3 Bft) 79,63 %
07.10.2020 10:48 12,4 C 12,2 C 10,6 C 97 % 1010,1 hPa 0,0 l/m 0 min 0 min 85 W/m 3,2 km/h (1 Bft) 91,49 %
07.10.2020 10:50 12,4 C 12,2 C 10,6 C 97 % 1010,2 hPa 0,0 l/m 0 min 0 min 100 W/m 3,2 km/h (1 Bft) 96,00 %
07.10.2020 10:52 12,4 C 12,2 C 10,6 C 97 % 1010,2 hPa 0,0 l/m 0 min 0 min 107 W/m 16,1 km/h (3 Bft) 93,75 %
07.10.2020 10:54 12,4 C 12,8 C 10,6 C 97 % 1010,2 hPa 0,0 l/m 0 min 0 min 106 W/m 3,2 km/h (1 Bft) 95,83 %
07.10.2020 10:57 12,4 C 12,8 C 11,1 C 97 % 1010,4 hPa 0,0 l/m 0 min 0 min 158 W/m 16,1 km/h (3 Bft) 92,86 %
07.10.2020 10:58 12,5 C 12,8 C 11,1 C 97 % 1010,3 hPa 0,0 l/m 0 min 0 min 148 W/m 6,4 km/h (2 Bft) 100,00 %
07.10.2020 11:02 12,6 C 12,8 C 11,1 C 97 % 1010,3 hPa 0,0 l/m 0 min 0 min 116 W/m 22,5 km/h (4 Bft) 97,50 %
07.10.2020 11:04 12,6 C 12,8 C 11,1 C 96 % 1010,4 hPa 0,0 l/m 0 min 0 min 133 W/m 16,1 km/h (3 Bft) 94,29 %
07.10.2020 11:06 12,6 C 12,8 C 11,1 C 96 % 1010,4 hPa 0,0 l/m 0 min 0 min 166 W/m 12,9 km/h (3 Bft) 95,74 %
07.10.2020 11:08 12,6 C 12,8 C 11,1 C 96 % 1010,4 hPa 0,0 l/m 0 min 0 min 160 W/m 16,1 km/h (3 Bft) 94,44 %
07.10.2020 11:10 12,6 C 12,8 C 11,1 C 96 % 1010,4 hPa 0,0 l/m 0 min 0 min 131 W/m 19,3 km/h (3 Bft) 95,83 %
07.10.2020 11:12 12,6 C 12,8 C 11,1 C 96 % 1010,4 hPa 0,0 l/m 0 min 0 min 119 W/m 12,9 km/h (3 Bft) 93,75 %
07.10.2020 11:14 12,6 C 12,8 C 11,1 C 96 % 1010,5 hPa 0,0 l/m 0 min 0 min 119 W/m 19,3 km/h (3 Bft) 95,92 %
07.10.2020 11:16 12,6 C 12,8 C 11,1 C 96 % 1010,5 hPa 0,0 l/m 0 min 0 min 112 W/m 19,3 km/h (3 Bft) 97,14 %
07.10.2020 11:18 12,6 C 12,8 C 11,1 C 96 % 1010,5 hPa 0,0 l/m 0 min 0 min 126 W/m 12,9 km/h (3 Bft) 91,49 %
07.10.2020 11:20 12,7 C 12,8 C 11,1 C 96 % 1010,6 hPa 0,0 l/m 0 min 0 min 142 W/m 19,3 km/h (3 Bft) 96,23 %
07.10.2020 11:22 12,7 C 12,8 C 11,1 C 95 % 1010,5 hPa 0,0 l/m 0 min 0 min 119 W/m 12,9 km/h (3 Bft) 93,75 %
07.10.2020 11:24 12,7 C 12,8 C 11,1 C 95 % 1010,5 hPa 0,0 l/m 0 min 0 min 72 W/m 9,7 km/h (2 Bft) 95,83 %
07.10.2020 11:26 12,7 C 12,2 C 11,1 C 95 % 1010,7 hPa 0,0 l/m 0 min 0 min 53 W/m 12,9 km/h (3 Bft) 95,92 %
07.10.2020 11:28 12,7 C 12,2 C 11,1 C 95 % 1010,7 hPa 0,0 l/m 0 min 0 min 47 W/m 12,9 km/h (3 Bft) 97,92 %
07.10.2020 11:30 12,7 C 12,2 C 10,6 C 95 % 1010,7 hPa 0,0 l/m 0 min 0 min 60 W/m 0,0 km/h (0 Bft) 93,62 %
07.10.2020 11:32 12,7 C 12,2 C 11,1 C 95 % 1010,7 hPa 0,0 l/m 0 min 0 min 72 W/m 12,9 km/h (3 Bft) 94,59 %
07.10.2020 11:34 12,7 C 12,2 C 10,6 C 95 % 1010,8 hPa 0,0 l/m 0 min 0 min 53 W/m 16,1 km/h (3 Bft) 97,87 %
07.10.2020 11:36 12,7 C 11,7 C 10,6 C 95 % 1010,7 hPa 0,0 l/m 0 min 2 min 59 W/m 9,7 km/h (2 Bft) 100,00 %
07.10.2020 11:38 12,7 C 11,1 C 10,6 C 95 % 1010,7 hPa 0,2 l/m 0 min 2 min 66 W/m 6,4 km/h (2 Bft) 97,87 %
07.10.2020 11:40 12,7 C 11,1 C 10,6 C 95 % 1010,7 hPa 0,0 l/m 0 min 2 min 57 W/m 12,9 km/h (3 Bft) 100,00 %
07.10.2020 11:42 12,6 C 11,1 C 10,6 C 95 % 1010,7 hPa 0,0 l/m 0 min 0 min 52 W/m 22,5 km/h (4 Bft) 93,62 %
07.10.2020 11:44 12,6 C 11,1 C 10,6 C 95 % 1010,7 hPa 0,0 l/m 0 min 0 min 53 W/m 19,3 km/h (3 Bft) 100,00 %
07.10.2020 11:46 12,6 C 11,1 C 10,6 C 95 % 1010,7 hPa 0,0 l/m 0 min 0 min 75 W/m 9,7 km/h (2 Bft) 94,34 %
07.10.2020 11:48 12,6 C 11,7 C 11,1 C 95 % 1010,7 hPa 0,0 l/m 0 min 0 min 113 W/m 16,1 km/h (3 Bft) 100,00 %
07.10.2020 11:50 12,6 C 11,7 C 11,1 C 95 % 1010,8 hPa 0,0 l/m 0 min 0 min 111 W/m 3,2 km/h (1 Bft) 100,00 %
07.10.2020 11:52 12,6 C 11,7 C 11,1 C 95 % 1010,8 hPa 0,0 l/m 0 min 0 min 134 W/m 9,7 km/h (2 Bft) 100,00 %
07.10.2020 11:54 12,7 C 12,2 C 11,7 C 95 % 1010,8 hPa 0,0 l/m 0 min 0 min 128 W/m 0,0 km/h (0 Bft) 100,00 %
07.10.2020 11:56 12,7 C 12,2 C 11,7 C 96 % 1010,8 hPa 0,0 l/m 0 min 0 min 99 W/m 0,0 km/h (0 Bft) 95,74 %
07.10.2020 11:58 12,7 C 11,7 C 11,1 C 96 % 1010,8 hPa 0,0 l/m 0 min 0 min 77 W/m 16,1 km/h (3 Bft) 100,00 %
07.10.2020 12:00 12,7 C 11,7 C 11,1 C 96 % 1010,9 hPa 0,0 l/m 0 min 0 min 70 W/m 9,7 km/h (2 Bft) 100,00 %
07.10.2020 12:02 12,7 C 11,7 C 11,1 C 96 % 1011,0 hPa 0,0 l/m 0 min 0 min 96 W/m 16,1 km/h (3 Bft) 100,00 %
07.10.2020 12:04 12,7 C 12,2 C 11,1 C 96 % 1010,9 hPa 0,0 l/m 0 min 0 min 113 W/m 19,3 km/h (3 Bft) 100,00 %
07.10.2020 12:07 12,7 C 12,2 C 11,7 C 96 % 1010,8 hPa 0,0 l/m 0 min 0 min 118 W/m 19,3 km/h (3 Bft) 100,00 %
07.10.2020 12:08 12,7 C 12,2 C 11,7 C 96 % 1010,8 hPa 0,0 l/m 0 min 0 min 133 W/m 22,5 km/h (4 Bft) 100,00 %
07.10.2020 12:10 12,7 C 12,2 C 11,1 C 96 % 1010,8 hPa 0,0 l/m 0 min 0 min 140 W/m 16,1 km/h (3 Bft) 100,00 %
07.10.2020 12:12 12,8 C 12,2 C 11,7 C 96 % 1010,9 hPa 0,0 l/m 0 min 0 min 144 W/m 12,9 km/h (3 Bft) 100,00 %
07.10.2020 12:14 12,8 C 12,2 C 11,7 C 96 % 1010,9 hPa 0,0 l/m 0 min 0 min 148 W/m 16,1 km/h (3 Bft) 97,92 %
07.10.2020 12:16 12,8 C 12,2 C 11,7 C 96 % 1010,9 hPa 0,0 l/m 0 min 0 min 150 W/m 9,7 km/h (2 Bft) 100,00 %
07.10.2020 12:18 12,8 C 12,8 C 11,7 C 96 % 1011,0 hPa 0,0 l/m 0 min 0 min 144 W/m 6,4 km/h (2 Bft) 97,87 %
07.10.2020 12:20 12,9 C 12,8 C 11,7 C 96 % 1011,1 hPa 0,0 l/m 0 min 0 min 130 W/m 12,9 km/h (3 Bft) 100,00 %
07.10.2020 12:22 12,9 C 12,8 C 11,7 C 96 % 1011,1 hPa 0,0 l/m 0 min 0 min 124 W/m 12,9 km/h (3 Bft) 100,00 %
07.10.2020 12:24 12,9 C 12,8 C 11,7 C 96 % 1011,0 hPa 0,0 l/m 0 min 0 min 120 W/m 12,9 km/h (3 Bft) 100,00 %
07.10.2020 12:26 12,9 C 12,8 C 11,7 C 95 % 1011,1 hPa 0,0 l/m 0 min 0 min 130 W/m 12,9 km/h (3 Bft) 97,92 %
07.10.2020 12:28 12,9 C 12,8 C 11,7 C 95 % 1011,1 hPa 0,0 l/m 0 min 0 min 157 W/m 19,3 km/h (3 Bft) 97,92 %
07.10.2020 12:30 12,9 C 12,8 C 11,7 C 95 % 1011,1 hPa 0,0 l/m 0 min 0 min 196 W/m 16,1 km/h (3 Bft) 97,87 %
07.10.2020 12:32 13,0 C 12,8 C 11,7 C 96 % 1011,1 hPa 0,0 l/m 0 min 0 min 185 W/m 12,9 km/h (3 Bft) 97,83 %
07.10.2020 12:34 13,1 C 13,3 C 11,7 C 96 % 1011,1 hPa 0,0 l/m 0 min 0 min 175 W/m 3,2 km/h (1 Bft) 97,73 %
07.10.2020 12:36 13,1 C 13,3 C 11,7 C 95 % 1011,1 hPa 0,0 l/m 0 min 0 min 206 W/m 16,1 km/h (3 Bft) 97,96 %
07.10.2020 12:38 13,1 C 13,3 C 11,7 C 95 % 1011,1 hPa 0,0 l/m 0 min 0 min 260 W/m 16,1 km/h (3 Bft) 95,83 %
07.10.2020 12:40 13,2 C 14,4 C 12,2 C 95 % 1011,1 hPa 0,0 l/m 2 min 0 min 349 W/m 12,9 km/h (3 Bft) 97,87 %
07.10.2020 12:42 13,2 C 14,4 C 12,2 C 95 % 1011,2 hPa 0,0 l/m 2 min 0 min 288 W/m 12,9 km/h (3 Bft) 97,87 %
07.10.2020 12:44 13,3 C 15,0 C 12,8 C 95 % 1011,2 hPa 0,0 l/m 2 min 0 min 301 W/m 16,1 km/h (3 Bft) 97,83 %
07.10.2020 12:46 13,4 C 15,0 C 12,8 C 95 % 1011,2 hPa 0,0 l/m 2 min 0 min 337 W/m 16,1 km/h (3 Bft) 98,15 %
07.10.2020 12:48 13,4 C 14,4 C 12,8 C 95 % 1011,3 hPa 0,0 l/m 0 min 0 min 208 W/m 19,3 km/h (3 Bft) 94,59 %
07.10.2020 12:50 13,5 C 14,4 C 12,8 C 95 % 1011,3 hPa 0,0 l/m 0 min 0 min 210 W/m 12,9 km/h (3 Bft) 97,96 %
07.10.2020 12:52 13,6 C 15,0 C 12,8 C 95 % 1011,3 hPa 0,0 l/m 0 min 0 min 239 W/m 16,1 km/h (3 Bft) 97,92 %
07.10.2020 12:54 13,6 C 15,6 C 12,8 C 95 % 1011,3 hPa 0,0 l/m 2 min 0 min 269 W/m 9,7 km/h (2 Bft) 97,87 %
07.10.2020 12:56 13,7 C 15,6 C 12,8 C 95 % 1011,4 hPa 0,0 l/m 0 min 0 min 262 W/m 16,1 km/h (3 Bft) 97,83 %
07.10.2020 12:58 13,7 C 15,0 C 12,8 C 95 % 1011,5 hPa 0,0 l/m 0 min 0 min 258 W/m 9,7 km/h (2 Bft) 97,73 %
07.10.2020 13:00 13,7 C 14,4 C 12,8 C 94 % 1011,6 hPa 0,0 l/m 0 min 0 min 187 W/m 22,5 km/h (4 Bft) 95,92 %
07.10.2020 13:02 13,7 C 14,4 C 12,8 C 94 % 1011,5 hPa 0,0 l/m 0 min 0 min 181 W/m 22,5 km/h (4 Bft) 97,92 %
07.10.2020 13:04 13,7 C 13,9 C 12,8 C 93 % 1011,5 hPa 0,0 l/m 0 min 0 min 196 W/m 29,0 km/h (5 Bft) 97,87 %
07.10.2020 13:06 13,7 C 14,4 C 12,8 C 93 % 1011,5 hPa 0,0 l/m 0 min 0 min 198 W/m 12,9 km/h (3 Bft) 95,74 %
07.10.2020 13:08 13,7 C 13,9 C 12,2 C 93 % 1011,6 hPa 0,0 l/m 0 min 0 min 86 W/m 19,3 km/h (3 Bft) 97,83 %
07.10.2020 13:10 13,7 C 12,8 C 12,2 C 93 % 1011,6 hPa 0,0 l/m 0 min 2 min 74 W/m 16,1 km/h (3 Bft) 97,67 %
07.10.2020 13:12 13,7 C 12,8 C 12,2 C 93 % 1011,6 hPa 0,0 l/m 0 min 2 min 79 W/m 12,9 km/h (3 Bft) 64,58 %
07.10.2020 13:14 13,7 C 12,8 C 12,2 C 93 % 1011,7 hPa 0,0 l/m 0 min 0 min 82 W/m 22,5 km/h (4 Bft) 91,49 %
07.10.2020 13:16 13,7 C 12,8 C 12,2 C 92 % 1011,7 hPa 0,0 l/m 0 min 2 min 79 W/m 29,0 km/h (5 Bft) 100,00 %
07.10.2020 13:18 13,7 C 12,8 C 11,7 C 92 % 1011,7 hPa 0,0 l/m 0 min 2 min 68 W/m 19,3 km/h (3 Bft) 97,87 %
07.10.2020 13:20 13,7 C 12,8 C 12,2 C 92 % 1011,7 hPa 0,0 l/m 0 min 2 min 70 W/m 22,5 km/h (4 Bft) 95,65 %
07.10.2020 13:22 13,6 C 12,2 C 11,7 C 92 % 1011,8 hPa 0,0 l/m 0 min 2 min 66 W/m 16,1 km/h (3 Bft) 97,87 %
07.10.2020 13:24 13,6 C 11,7 C 11,7 C 92 % 1011,8 hPa 0,0 l/m 0 min 2 min 50 W/m 12,9 km/h (3 Bft) 95,24 %
07.10.2020 13:26 13,6 C 11,7 C 11,7 C 92 % 1011,9 hPa 0,0 l/m 0 min 2 min 42 W/m 6,4 km/h (2 Bft) 95,92 %
07.10.2020 13:28 13,6 C 11,7 C 11,7 C 92 % 1011,9 hPa 0,2 l/m 0 min 2 min 50 W/m 19,3 km/h (3 Bft) 93,88 %
07.10.2020 13:30 13,5 C 11,7 C 11,7 C 92 % 1011,9 hPa 0,0 l/m 0 min 2 min 87 W/m 12,9 km/h (3 Bft) 95,92 %
07.10.2020 13:32 13,5 C 11,7 C 11,7 C 92 % 1011,9 hPa 0,0 l/m 0 min 2 min 82 W/m 12,9 km/h (3 Bft) 95,65 %
07.10.2020 13:34 13,5 C 11,7 C 11,7 C 93 % 1012,0 hPa 0,0 l/m 0 min 2 min 69 W/m 19,3 km/h (3 Bft) 93,62 %
07.10.2020 13:36 13,4 C 11,7 C 11,7 C 93 % 1012,0 hPa 0,0 l/m 0 min 2 min 62 W/m 9,7 km/h (2 Bft) 95,24 %
07.10.2020 13:38 13,4 C 11,7 C 11,7 C 93 % 1012,0 hPa 0,0 l/m 0 min 2 min 106 W/m 9,7 km/h (2 Bft) 94,00 %
07.10.2020 13:40 13,4 C 12,2 C 11,7 C 93 % 1012,1 hPa 0,0 l/m 0 min 2 min 120 W/m 16,1 km/h (3 Bft) 95,83 %
07.10.2020 13:42 13,3 C 11,7 C 11,7 C 93 % 1012,1 hPa 0,0 l/m 0 min 2 min 88 W/m 12,9 km/h (3 Bft) 97,87 %
07.10.2020 13:44 13,3 C 11,7 C 11,7 C 93 % 1012,2 hPa 0,0 l/m 0 min 2 min 95 W/m 19,3 km/h (3 Bft) 95,74 %
07.10.2020 13:46 13,2 C 11,7 C 11,7 C 93 % 1012,2 hPa 0,0 l/m 0 min 2 min 120 W/m 12,9 km/h (3 Bft) 95,24 %
07.10.2020 13:48 13,2 C 12,2 C 11,7 C 93 % 1012,2 hPa 0,0 l/m 0 min 2 min 139 W/m 19,3 km/h (3 Bft) 94,00 %
07.10.2020 13:50 13,2 C 12,2 C 11,7 C 93 % 1012,2 hPa 0,0 l/m 0 min 2 min 166 W/m 16,1 km/h (3 Bft) 95,92 %
07.10.2020 13:52 13,2 C 12,2 C 11,7 C 93 % 1012,3 hPa 0,0 l/m 0 min 2 min 102 W/m 16,1 km/h (3 Bft) 95,83 %
07.10.2020 13:54 13,2 C 12,2 C 11,7 C 93 % 1012,3 hPa 0,0 l/m 0 min 0 min 122 W/m 12,9 km/h (3 Bft) 95,74 %
07.10.2020 13:56 13,2 C 12,2 C 11,7 C 94 % 1012,3 hPa 0,0 l/m 0 min 0 min 123 W/m 12,9 km/h (3 Bft) 93,62 %
07.10.2020 13:58 13,2 C 12,2 C 11,7 C 94 % 1012,4 hPa 0,0 l/m 0 min 0 min 132 W/m 16,1 km/h (3 Bft) 97,14 %
07.10.2020 14:00 13,2 C 12,2 C 11,7 C 94 % 1012,4 hPa 0,0 l/m 0 min 0 min 123 W/m 12,9 km/h (3 Bft) 90,74 %
07.10.2020 14:02 13,2 C 12,2 C 11,7 C 94 % 1012,4 hPa 0,0 l/m 0 min 0 min 102 W/m 12,9 km/h (3 Bft) 96,00 %
07.10.2020 14:04 13,2 C 12,2 C 11,7 C 94 % 1012,4 hPa 0,0 l/m 0 min 0 min 107 W/m 12,9 km/h (3 Bft) 95,83 %
07.10.2020 14:06 13,2 C 12,2 C 11,7 C 94 % 1012,4 hPa 0,0 l/m 0 min 0 min 122 W/m 16,1 km/h (3 Bft) 97,92 %
07.10.2020 14:08 13,2 C 12,2 C 11,7 C 94 % 1012,4 hPa 0,0 l/m 0 min 0 min 139 W/m 6,4 km/h (2 Bft) 95,74 %
07.10.2020 14:10 13,3 C 12,2 C 12,2 C 94 % 1012,4 hPa 0,0 l/m 0 min 2 min 143 W/m 9,7 km/h (2 Bft) 97,14 %
07.10.2020 14:12 13,3 C 12,2 C 12,2 C 95 % 1012,4 hPa 0,0 l/m 0 min 2 min 123 W/m 12,9 km/h (3 Bft) 97,92 %
07.10.2020 14:14 13,2 C 12,2 C 11,7 C 95 % 1012,4 hPa 0,0 l/m 0 min 2 min 116 W/m 9,7 km/h (2 Bft) 96,30 %
07.10.2020 14:16 13,3 C 12,2 C 11,7 C 95 % 1012,5 hPa 0,0 l/m 0 min 2 min 151 W/m 6,4 km/h (2 Bft) 97,92 %
07.10.2020 14:18 13,3 C 12,2 C 12,2 C 95 % 1012,5 hPa 0,0 l/m 0 min 2 min 169 W/m 9,7 km/h (2 Bft) 97,96 %
07.10.2020 14:20 13,3 C 12,2 C 12,2 C 95 % 1012,5 hPa 0,0 l/m 0 min 2 min 134 W/m 12,9 km/h (3 Bft) 97,96 %
07.10.2020 14:22 13,3 C 12,2 C 12,2 C 95 % 1012,5 hPa 0,0 l/m 0 min 2 min 106 W/m 6,4 km/h (2 Bft) 94,29 %
07.10.2020 14:24 13,3 C 12,2 C 11,7 C 95 % 1012,5 hPa 0,0 l/m 0 min 2 min 88 W/m 9,7 km/h (2 Bft) 97,87 %
07.10.2020 14:26 13,3 C 12,2 C 11,7 C 95 % 1012,5 hPa 0,0 l/m 0 min 2 min 76 W/m 12,9 km/h (3 Bft) 98,11 %
07.10.2020 14:28 13,3 C 11,7 C 11,7 C 95 % 1012,5 hPa 0,0 l/m 0 min 2 min 82 W/m 25,7 km/h (4 Bft) 95,92 %
07.10.2020 14:30 13,2 C 11,7 C 11,7 C 95 % 1012,5 hPa 0,0 l/m 0 min 2 min 96 W/m 22,5 km/h (4 Bft) 97,96 %
07.10.2020 14:32 13,2 C 12,2 C 11,7 C 95 % 1012,5 hPa 0,0 l/m 0 min 0 min 110 W/m 6,4 km/h (2 Bft) 100,00 %
07.10.2020 14:34 13,2 C 12,2 C 11,7 C 95 % 1012,5 hPa 0,0 l/m 0 min 0 min 111 W/m 9,7 km/h (2 Bft) 93,62 %
07.10.2020 14:36 13,2 C 12,2 C 11,7 C 95 % 1012,5 hPa 0,0 l/m 0 min 0 min 113 W/m 12,9 km/h (3 Bft) 100,00 %
07.10.2020 14:38 13,2 C 12,2 C 11,7 C 95 % 1012,5 hPa 0,0 l/m 0 min 0 min 107 W/m 12,9 km/h (3 Bft) 100,00 %
07.10.2020 14:40 13,2 C 12,2 C 11,7 C 95 % 1012,5 hPa 0,0 l/m 0 min 0 min 100 W/m 6,4 km/h (2 Bft) 100,00 %
07.10.2020 14:42 13,2 C 12,2 C 11,7 C 95 % 1012,5 hPa 0,0 l/m 0 min 0 min 96 W/m 16,1 km/h (3 Bft) 95,92 %
07.10.2020 14:44 13,2 C 12,2 C 11,7 C 95 % 1012,5 hPa 0,0 l/m 0 min 0 min 104 W/m 19,3 km/h (3 Bft) 100,00 %
07.10.2020 14:46 13,2 C 12,8 C 11,7 C 95 % 1012,5 hPa 0,0 l/m 0 min 0 min 111 W/m 12,9 km/h (3 Bft) 100,00 %
07.10.2020 14:48 13,2 C 12,8 C 12,2 C 95 % 1012,6 hPa 0,0 l/m 0 min 0 min 115 W/m 19,3 km/h (3 Bft) 97,92 %
07.10.2020 14:50 13,2 C 12,8 C 12,2 C 95 % 1012,6 hPa 0,0 l/m 0 min 0 min 122 W/m 9,7 km/h (2 Bft) 100,00 %
07.10.2020 14:52 13,2 C 12,8 C 12,2 C 95 % 1012,6 hPa 0,0 l/m 0 min 0 min 117 W/m 9,7 km/h (2 Bft) 95,74 %
07.10.2020 14:54 13,2 C 12,8 C 12,2 C 95 % 1012,6 hPa 0,0 l/m 0 min 0 min 110 W/m 9,7 km/h (2 Bft) 100,00 %
07.10.2020 14:56 13,3 C 12,8 C 12,2 C 95 % 1012,6 hPa 0,0 l/m 0 min 0 min 88 W/m 9,7 km/h (2 Bft) 95,83 %
07.10.2020 14:58 13,3 C 12,8 C 12,2 C 95 % 1012,7 hPa 0,0 l/m 0 min 0 min 87 W/m 25,7 km/h (4 Bft) 100,00 %
07.10.2020 15:00 13,3 C 12,8 C 12,2 C 95 % 1012,7 hPa 0,0 l/m 0 min 0 min 103 W/m 19,3 km/h (3 Bft) 97,92 %
07.10.2020 15:02 13,3 C 12,8 C 12,2 C 94 % 1012,7 hPa 0,0 l/m 0 min 0 min 115 W/m 12,9 km/h (3 Bft) 100,00 %
07.10.2020 15:04 13,3 C 12,8 C 12,2 C 94 % 1012,7 hPa 0,0 l/m 0 min 0 min 131 W/m 16,1 km/h (3 Bft) 100,00 %
07.10.2020 15:06 13,3 C 13,3 C 12,2 C 94 % 1012,7 hPa 0,0 l/m 0 min 0 min 144 W/m 9,7 km/h (2 Bft) 95,83 %
07.10.2020 15:08 13,4 C 13,3 C 12,2 C 94 % 1012,8 hPa 0,0 l/m 0 min 0 min 153 W/m 19,3 km/h (3 Bft) 100,00 %
07.10.2020 15:10 13,4 C 13,3 C 12,2 C 94 % 1012,8 hPa 0,0 l/m 0 min 0 min 154 W/m 22,5 km/h (4 Bft) 100,00 %
07.10.2020 15:12 13,4 C 12,8 C 12,2 C 94 % 1012,8 hPa 0,0 l/m 0 min 0 min 152 W/m 19,3 km/h (3 Bft) 100,00 %
07.10.2020 15:14 13,4 C 13,3 C 12,2 C 93 % 1012,9 hPa 0,0 l/m 0 min 0 min 158 W/m 6,4 km/h (2 Bft) 100,00 %
07.10.2020 15:16 13,4 C 13,3 C 12,2 C 93 % 1012,9 hPa 0,0 l/m 0 min 0 min 163 W/m 22,5 km/h (4 Bft) 100,00 %
07.10.2020 15:18 13,4 C 13,3 C 12,2 C 93 % 1012,9 hPa 0,0 l/m 0 min 0 min 157 W/m 16,1 km/h (3 Bft) 100,00 %
07.10.2020 15:20 13,5 C 13,3 C 12,2 C 93 % 1012,9 hPa 0,0 l/m 0 min 0 min 121 W/m 16,1 km/h (3 Bft) 100,00 %
07.10.2020 15:22 13,6 C 13,3 C 12,2 C 93 % 1013,0 hPa 0,0 l/m 0 min 0 min 119 W/m 9,7 km/h (2 Bft) 97,92 %
07.10.2020 15:24 13,6 C 13,3 C 12,2 C 92 % 1013,0 hPa 0,0 l/m 0 min 0 min 130 W/m 9,7 km/h (2 Bft) 100,00 %
07.10.2020 15:26 13,6 C 13,3 C 12,2 C 92 % 1013,0 hPa 0,0 l/m 0 min 0 min 136 W/m 16,1 km/h (3 Bft) 100,00 %
07.10.2020 15:28 13,6 C 13,3 C 12,2 C 92 % 1013,0 hPa 0,0 l/m 0 min 0 min 122 W/m 12,9 km/h (3 Bft) 100,00 %
07.10.2020 15:30 13,6 C 13,3 C 12,2 C 92 % 1013,0 hPa 0,0 l/m 0 min 0 min 119 W/m 6,4 km/h (2 Bft) 100,00 %
07.10.2020 15:32 13,7 C 13,3 C 12,2 C 92 % 1013,0 hPa 0,0 l/m 0 min 0 min 116 W/m 12,9 km/h (3 Bft) 100,00 %
07.10.2020 15:34 13,7 C 13,3 C 12,2 C 92 % 1013,1 hPa 0,0 l/m 0 min 0 min 113 W/m 19,3 km/h (3 Bft) 93,75 %
07.10.2020 15:36 13,7 C 13,3 C 12,2 C 91 % 1013,1 hPa 0,0 l/m 0 min 0 min 110 W/m 22,5 km/h (4 Bft) 93,48 %
07.10.2020 15:38 13,7 C 13,3 C 12,2 C 91 % 1013,0 hPa 0,0 l/m 0 min 0 min 104 W/m 16,1 km/h (3 Bft) 97,87 %
07.10.2020 15:40 13,7 C 12,8 C 12,2 C 90 % 1013,1 hPa 0,0 l/m 0 min 0 min 98 W/m 22,5 km/h (4 Bft) 97,96 %
07.10.2020 15:42 13,7 C 13,3 C 12,2 C 90 % 1013,1 hPa 0,0 l/m 0 min 0 min 96 W/m 22,5 km/h (4 Bft) 97,96 %
07.10.2020 15:44 13,8 C 13,3 C 12,2 C 90 % 1013,2 hPa 0,0 l/m 0 min 0 min 95 W/m 12,9 km/h (3 Bft) 97,14 %
07.10.2020 15:46 13,8 C 13,3 C 12,2 C 90 % 1013,2 hPa 0,0 l/m 0 min 0 min 114 W/m 29,0 km/h (5 Bft) 97,87 %
07.10.2020 15:48 13,8 C 13,9 C 12,2 C 90 % 1013,2 hPa 0,0 l/m 0 min 0 min 153 W/m 16,1 km/h (3 Bft) 97,87 %
07.10.2020 15:50 13,8 C 14,4 C 12,2 C 90 % 1013,2 hPa 0,0 l/m 0 min 0 min 192 W/m 16,1 km/h (3 Bft) 98,15 %
07.10.2020 15:52 13,8 C 14,4 C 12,2 C 90 % 1013,2 hPa 0,0 l/m 0 min 0 min 191 W/m 6,4 km/h (2 Bft) 97,87 %
07.10.2020 15:54 13,9 C 15,6 C 12,2 C 90 % 1013,2 hPa 0,0 l/m 2 min 0 min 238 W/m 19,3 km/h (3 Bft) 97,96 %
07.10.2020 15:56 14,0 C 17,2 C 12,8 C 90 % 1013,2 hPa 0,0 l/m 2 min 0 min 239 W/m 16,1 km/h (3 Bft) 97,92 %
07.10.2020 15:58 14,1 C 17,2 C 12,8 C 90 % 1013,2 hPa 0,0 l/m 2 min 0 min 284 W/m 19,3 km/h (3 Bft) 97,22 %
07.10.2020 16:00 14,2 C 17,8 C 12,8 C 90 % 1013,2 hPa 0,0 l/m 2 min 0 min 329 W/m 16,1 km/h (3 Bft) 95,74 %
07.10.2020 16:02 14,3 C 17,2 C 12,8 C 90 % 1013,2 hPa 0,0 l/m 2 min 0 min 301 W/m 9,7 km/h (2 Bft) 94,34 %
07.10.2020 16:04 14,3 C 16,7 C 12,8 C 90 % 1013,2 hPa 0,0 l/m 2 min 0 min 220 W/m 9,7 km/h (2 Bft) 93,88 %
07.10.2020 16:06 14,3 C 15,6 C 12,8 C 89 % 1013,3 hPa 0,0 l/m 2 min 0 min 259 W/m 12,9 km/h (3 Bft) 95,92 %
07.10.2020 16:08 14,4 C 15,6 C 12,8 C 89 % 1013,1 hPa 0,0 l/m 0 min 0 min 172 W/m 12,9 km/h (3 Bft) 95,83 %
07.10.2020 16:10 14,4 C 15,6 C 12,8 C 89 % 1013,2 hPa 0,0 l/m 0 min 0 min 171 W/m 6,4 km/h (2 Bft) 94,29 %
07.10.2020 16:12 14,5 C 15,6 C 12,8 C 89 % 1013,2 hPa 0,0 l/m 0 min 0 min 159 W/m 16,1 km/h (3 Bft) 95,74 %
07.10.2020 16:14 14,5 C 15,0 C 12,8 C 89 % 1013,4 hPa 0,0 l/m 0 min 0 min 134 W/m 6,4 km/h (2 Bft) 93,75 %
07.10.2020 16:16 14,5 C 14,4 C 12,2 C 88 % 1013,4 hPa 0,0 l/m 0 min 0 min 141 W/m 16,1 km/h (3 Bft) 92,45 %
07.10.2020 16:18 14,5 C 15,0 C 12,2 C 87 % 1013,4 hPa 0,0 l/m 0 min 0 min 176 W/m 12,9 km/h (3 Bft) 95,92 %
07.10.2020 16:20 14,5 C 15,0 C 12,2 C 87 % 1013,4 hPa 0,2 l/m 2 min 0 min 201 W/m 19,3 km/h (3 Bft) 95,92 %
07.10.2020 16:22 14,5 C 14,4 C 12,2 C 87 % 1013,5 hPa 0,0 l/m 0 min 0 min 153 W/m 16,1 km/h (3 Bft) 97,22 %
07.10.2020 16:24 14,4 C 14,4 C 12,8 C 87 % 1013,4 hPa 0,0 l/m 0 min 0 min 148 W/m 35,4 km/h (5 Bft) 97,87 %
07.10.2020 16:26 14,4 C 14,4 C 12,8 C 86 % 1013,5 hPa 0,0 l/m 0 min 0 min 147 W/m 19,3 km/h (3 Bft) 95,74 %
07.10.2020 16:28 14,4 C 14,4 C 12,8 C 86 % 1013,4 hPa 0,0 l/m 0 min 0 min 153 W/m 22,5 km/h (4 Bft) 97,83 %
07.10.2020 16:30 14,4 C 14,4 C 12,8 C 85 % 1013,3 hPa 0,0 l/m 0 min 0 min 143 W/m 32,2 km/h (5 Bft) 98,15 %
07.10.2020 16:32 14,4 C 13,9 C 12,2 C 85 % 1013,4 hPa 0,0 l/m 0 min 0 min 98 W/m 12,9 km/h (3 Bft) 94,00 %
07.10.2020 16:34 14,4 C 13,9 C 12,2 C 85 % 1013,5 hPa 0,0 l/m 0 min 0 min 70 W/m 12,9 km/h (3 Bft) 97,30 %
07.10.2020 16:36 14,3 C 13,9 C 12,2 C 85 % 1013,6 hPa 0,0 l/m 0 min 0 min 77 W/m 12,9 km/h (3 Bft) 95,74 %
07.10.2020 16:38 14,3 C 13,9 C 12,2 C 85 % 1013,6 hPa 0,0 l/m 0 min 0 min 76 W/m 19,3 km/h (3 Bft) 95,65 %
07.10.2020 16:40 14,3 C 13,9 C 12,2 C 85 % 1013,6 hPa 0,0 l/m 0 min 0 min 75 W/m 12,9 km/h (3 Bft) 95,74 %
07.10.2020 16:42 14,3 C 13,9 C 12,2 C 85 % 1013,7 hPa 0,0 l/m 0 min 0 min 71 W/m 12,9 km/h (3 Bft) 97,87 %
07.10.2020 16:44 14,3 C 13,9 C 12,2 C 85 % 1013,6 hPa 0,0 l/m 0 min 0 min 70 W/m 9,7 km/h (2 Bft) 100,00 %
07.10.2020 16:46 14,3 C 13,9 C 12,2 C 85 % 1013,7 hPa 0,0 l/m 0 min 0 min 69 W/m 16,1 km/h (3 Bft) 97,87 %
07.10.2020 16:48 14,3 C 13,9 C 12,2 C 85 % 1013,7 hPa 0,0 l/m 0 min 0 min 81 W/m 12,9 km/h (3 Bft) 98,15 %
07.10.2020 16:50 14,3 C 13,9 C 12,2 C 85 % 1013,7 hPa 0,0 l/m 0 min 0 min 128 W/m 12,9 km/h (3 Bft) 97,96 %
07.10.2020 16:52 14,3 C 15,0 C 12,8 C 85 % 1013,7 hPa 0,0 l/m 2 min 0 min 210 W/m 12,9 km/h (3 Bft) 97,30 %
07.10.2020 16:54 14,3 C 16,1 C 13,3 C 85 % 1013,7 hPa 0,0 l/m 2 min 0 min 289 W/m 16,1 km/h (3 Bft) 91,49 %
07.10.2020 16:56 14,3 C 17,2 C 13,9 C 85 % 1013,8 hPa 0,0 l/m 2 min 0 min 344 W/m 12,9 km/h (3 Bft) 95,74 %
07.10.2020 16:58 14,4 C 16,7 C 14,4 C 86 % 1013,8 hPa 0,0 l/m 2 min 0 min 384 W/m 22,5 km/h (4 Bft) 97,87 %
07.10.2020 17:00 14,4 C 16,1 C 13,9 C 85 % 1013,8 hPa 0,0 l/m 2 min 0 min 220 W/m 12,9 km/h (3 Bft) 98,11 %
07.10.2020 17:02 14,5 C 15,6 C 13,3 C 85 % 1013,8 hPa 0,0 l/m 2 min 0 min 198 W/m 12,9 km/h (3 Bft) 97,92 %
07.10.2020 17:04 14,6 C 15,6 C 13,3 C 85 % 1014,0 hPa 0,0 l/m 2 min 0 min 178 W/m 16,1 km/h (3 Bft) 97,96 %
07.10.2020 17:06 14,6 C 15,0 C 13,3 C 85 % 1013,9 hPa 0,0 l/m 2 min 0 min 157 W/m 12,9 km/h (3 Bft) 97,87 %
07.10.2020 17:08 14,6 C 15,0 C 12,8 C 85 % 1013,9 hPa 0,0 l/m 2 min 0 min 143 W/m 12,9 km/h (3 Bft) 93,48 %
07.10.2020 17:10 14,6 C 14,4 C 12,8 C 85 % 1014,0 hPa 0,0 l/m 2 min 0 min 136 W/m 3,2 km/h (1 Bft) 97,87 %
07.10.2020 17:12 14,7 C 14,4 C 12,8 C 85 % 1014,1 hPa 0,0 l/m 0 min 0 min 123 W/m 12,9 km/h (3 Bft) 95,74 %
07.10.2020 17:14 14,7 C 14,4 C 12,8 C 85 % 1014,1 hPa 0,0 l/m 0 min 0 min 104 W/m 6,4 km/h (2 Bft) 97,87 %
07.10.2020 17:16 14,6 C 14,4 C 12,8 C 84 % 1014,1 hPa 0,0 l/m 0 min 0 min 89 W/m 16,1 km/h (3 Bft) 97,87 %
07.10.2020 17:18 14,6 C 14,4 C 12,8 C 84 % 1014,1 hPa 0,0 l/m 0 min 0 min 79 W/m 16,1 km/h (3 Bft) 97,87 %
07.10.2020 17:20 14,6 C 13,9 C 12,8 C 84 % 1014,1 hPa 0,0 l/m 0 min 0 min 67 W/m 12,9 km/h (3 Bft) 97,83 %
07.10.2020 17:22 14,6 C 13,9 C 12,8 C 84 % 1014,1 hPa 0,0 l/m 0 min 0 min 64 W/m 9,7 km/h (2 Bft) 97,87 %
07.10.2020 17:24 14,6 C 13,9 C 12,8 C 84 % 1014,2 hPa 0,0 l/m 0 min 0 min 67 W/m 16,1 km/h (3 Bft) 95,74 %
07.10.2020 17:26 14,6 C 13,9 C 12,8 C 84 % 1014,1 hPa 0,0 l/m 0 min 0 min 66 W/m 16,1 km/h (3 Bft) 95,74 %
07.10.2020 17:28 14,5 C 13,9 C 12,8 C 84 % 1014,2 hPa 0,0 l/m 0 min 0 min 62 W/m 12,9 km/h (3 Bft) 97,87 %
07.10.2020 17:30 14,4 C 13,9 C 12,8 C 84 % 1014,2 hPa 0,0 l/m 0 min 0 min 56 W/m 16,1 km/h (3 Bft) 97,87 %
07.10.2020 17:32 14,4 C 13,9 C 12,8 C 84 % 1014,2 hPa 0,0 l/m 0 min 0 min 53 W/m 12,9 km/h (3 Bft) 97,87 %
07.10.2020 17:34 14,3 C 13,9 C 12,8 C 83 % 1014,2 hPa 0,0 l/m 0 min 0 min 54 W/m 19,3 km/h (3 Bft) 97,87 %
07.10.2020 17:36 14,3 C 13,9 C 12,8 C 83 % 1014,2 hPa 0,0 l/m 0 min 0 min 56 W/m 16,1 km/h (3 Bft) 97,87 %
07.10.2020 17:38 14,3 C 13,3 C 12,8 C 82 % 1014,2 hPa 0,0 l/m 0 min 0 min 52 W/m 19,3 km/h (3 Bft) 97,87 %
07.10.2020 17:40 14,3 C 13,3 C 12,2 C 82 % 1014,3 hPa 0,0 l/m 0 min 0 min 46 W/m 12,9 km/h (3 Bft) 97,87 %
07.10.2020 17:42 14,3 C 13,3 C 12,2 C 82 % 1014,3 hPa 0,0 l/m 0 min 0 min 45 W/m 9,7 km/h (2 Bft) 95,74 %
07.10.2020 17:44 14,3 C 13,3 C 12,2 C 83 % 1014,3 hPa 0,0 l/m 0 min 0 min 47 W/m 16,1 km/h (3 Bft) 97,83 %
07.10.2020 17:46 14,3 C 13,3 C 12,2 C 82 % 1014,3 hPa 0,0 l/m 0 min 0 min 51 W/m 19,3 km/h (3 Bft) 95,74 %
07.10.2020 17:48 14,3 C 13,3 C 12,2 C 82 % 1014,4 hPa 0,0 l/m 0 min 0 min 54 W/m 19,3 km/h (3 Bft) 100,00 %
07.10.2020 17:50 14,2 C 13,3 C 12,2 C 82 % 1014,3 hPa 0,0 l/m 0 min 0 min 55 W/m 12,9 km/h (3 Bft) 100,00 %
07.10.2020 17:52 14,1 C 13,3 C 12,2 C 83 % 1014,3 hPa 0,0 l/m 0 min 0 min 58 W/m 16,1 km/h (3 Bft) 100,00 %
07.10.2020 17:54 14,1 C 13,3 C 12,2 C 83 % 1014,4 hPa 0,0 l/m 0 min 0 min 59 W/m 12,9 km/h (3 Bft) 100,00 %
07.10.2020 17:56 14,1 C 13,3 C 12,2 C 83 % 1014,3 hPa 0,0 l/m 0 min 0 min 51 W/m 12,9 km/h (3 Bft) 100,00 %
07.10.2020 17:58 14,1 C 13,3 C 12,2 C 83 % 1014,4 hPa 0,0 l/m 0 min 0 min 45 W/m 19,3 km/h (3 Bft) 100,00 %
07.10.2020 18:00 14,0 C 13,3 C 12,2 C 83 % 1014,3 hPa 0,0 l/m 0 min 0 min 42 W/m 12,9 km/h (3 Bft) 100,00 %
07.10.2020 18:02 13,9 C 13,3 C 12,2 C 83 % 1014,4 hPa 0,0 l/m 0 min 0 min 39 W/m 16,1 km/h (3 Bft) 100,00 %
07.10.2020 18:04 13,9 C 13,3 C 12,2 C 83 % 1014,4 hPa 0,0 l/m 0 min 0 min 37 W/m 19,3 km/h (3 Bft) 97,87 %
07.10.2020 18:08 13,9 C 13,3 C 12,2 C 83 % 1014,4 hPa 0,0 l/m 0 min 0 min 37 W/m 16,1 km/h (3 Bft) 96,81 %
07.10.2020 18:10 13,9 C 13,3 C 12,2 C 83 % 1014,5 hPa 0,0 l/m 0 min 0 min 40 W/m 9,7 km/h (2 Bft) 97,83 %
07.10.2020 18:12 13,9 C 12,8 C 12,2 C 83 % 1014,6 hPa 0,0 l/m 0 min 0 min 41 W/m 9,7 km/h (2 Bft) 97,87 %
07.10.2020 18:14 13,9 C 13,3 C 12,2 C 83 % 1014,6 hPa 0,0 l/m 0 min 0 min 42 W/m 12,9 km/h (3 Bft) 93,62 %
07.10.2020 18:16 13,8 C 13,3 C 12,2 C 83 % 1014,6 hPa 0,0 l/m 0 min 0 min 43 W/m 12,9 km/h (3 Bft) 97,87 %
07.10.2020 18:18 13,9 C 13,3 C 12,2 C 84 % 1014,7 hPa 0,0 l/m 0 min 0 min 42 W/m 9,7 km/h (2 Bft) 97,87 %
07.10.2020 18:20 13,8 C 13,3 C 12,2 C 84 % 1014,7 hPa 0,0 l/m 0 min 0 min 41 W/m 16,1 km/h (3 Bft) 97,87 %
07.10.2020 18:22 13,8 C 13,3 C 12,2 C 84 % 1014,7 hPa 0,0 l/m 0 min 0 min 37 W/m 12,9 km/h (3 Bft) 97,83 %
07.10.2020 18:24 13,8 C 12,8 C 12,2 C 84 % 1014,7 hPa 0,0 l/m 0 min 0 min 33 W/m 12,9 km/h (3 Bft) 97,92 %
07.10.2020 18:26 13,8 C 12,8 C 12,2 C 84 % 1014,8 hPa 0,0 l/m 0 min 0 min 29 W/m 12,9 km/h (3 Bft) 97,87 %
07.10.2020 18:28 13,8 C 12,8 C 12,2 C 84 % 1014,8 hPa 0,0 l/m 0 min 0 min 25 W/m 16,1 km/h (3 Bft) 97,87 %
07.10.2020 18:30 13,7 C 12,8 C 12,2 C 84 % 1014,8 hPa 0,0 l/m 0 min 0 min 20 W/m 16,1 km/h (3 Bft) 97,87 %
07.10.2020 18:32 13,7 C 12,8 C 12,2 C 84 % 1014,8 hPa 0,0 l/m 0 min 0 min 16 W/m 19,3 km/h (3 Bft) 94,29 %
07.10.2020 18:34 13,7 C 12,8 C 12,2 C 84 % 1014,8 hPa 0,0 l/m 0 min 0 min 14 W/m 16,1 km/h (3 Bft) 95,74 %
07.10.2020 18:36 13,7 C 12,8 C 11,7 C 84 % 1014,9 hPa 0,0 l/m 0 min 0 min 12 W/m 6,4 km/h (2 Bft) 95,65 %
07.10.2020 18:38 13,7 C 12,2 C 11,7 C 84 % 1014,9 hPa 0,0 l/m 0 min 0 min 12 W/m 12,9 km/h (3 Bft) 93,22 %
07.10.2020 18:40 13,6 C 12,2 C 11,7 C 84 % 1015,0 hPa 0,0 l/m 0 min 0 min 12 W/m 6,4 km/h (2 Bft) 94,29 %
07.10.2020 18:42 13,6 C 12,2 C 11,7 C 84 % 1014,9 hPa 0,0 l/m 0 min 0 min 11 W/m 12,9 km/h (3 Bft) 93,62 %
07.10.2020 18:44 13,6 C 12,2 C 11,7 C 84 % 1014,9 hPa 0,0 l/m 0 min 0 min 9 W/m 16,1 km/h (3 Bft) 95,74 %
07.10.2020 18:46 13,6 C 12,2 C 11,7 C 84 % 1014,9 hPa 0,0 l/m 0 min 0 min 8 W/m 9,7 km/h (2 Bft) 95,74 %
07.10.2020 18:48 13,5 C 12,2 C 11,7 C 84 % 1015,0 hPa 0,0 l/m 0 min 0 min 6 W/m 6,4 km/h (2 Bft) 95,65 %
07.10.2020 18:50 13,5 C 12,2 C 11,7 C 84 % 1015,1 hPa 0,0 l/m 0 min 0 min 5 W/m 3,2 km/h (1 Bft) 95,74 %
07.10.2020 18:52 13,4 C 12,2 C 11,7 C 84 % 1015,1 hPa 0,0 l/m 0 min 0 min 5 W/m 0,0 km/h (0 Bft) 95,74 %
07.10.2020 18:54 13,4 C 12,2 C 11,7 C 84 % 1015,1 hPa 0,0 l/m 0 min 0 min 0 W/m 6,4 km/h (2 Bft) 97,87 %
07.10.2020 18:56 13,3 C 12,2 C 11,7 C 84 % 1015,2 hPa 0,0 l/m 0 min 0 min 0 W/m 9,7 km/h (2 Bft) 95,74 %
07.10.2020 18:58 13,3 C 12,2 C 11,7 C 84 % 1015,2 hPa 0,0 l/m 0 min 0 min 0 W/m 6,4 km/h (2 Bft) 96,00 %
07.10.2020 19:00 13,3 C 12,2 C 11,7 C 85 % 1015,2 hPa 0,0 l/m 0 min 0 min 0 W/m 3,2 km/h (1 Bft) 97,83 %
07.10.2020 19:02 13,2 C 12,2 C 11,7 C 85 % 1015,3 hPa 0,0 l/m 0 min 0 min 0 W/m 6,4 km/h (2 Bft) 97,87 %
07.10.2020 19:04 13,2 C 12,2 C 11,7 C 85 % 1015,3 hPa 0,0 l/m 0 min 0 min 0 W/m 9,7 km/h (2 Bft) 95,74 %
07.10.2020 19:06 13,2 C 12,2 C 11,7 C 85 % 1015,3 hPa 0,0 l/m 0 min 0 min 0 W/m 0,0 km/h (0 Bft) 97,87 %
07.10.2020 19:08 13,2 C 12,2 C 11,7 C 85 % 1015,4 hPa 0,0 l/m 0 min 0 min 0 W/m 0,0 km/h (0 Bft) 97,87 %
07.10.2020 19:10 13,2 C 12,2 C 11,7 C 85 % 1015,4 hPa 0,0 l/m 0 min 0 min 0 W/m 9,7 km/h (2 Bft) 97,83 %
07.10.2020 19:12 13,1 C 12,2 C 11,7 C 85 % 1015,4 hPa 0,0 l/m 0 min 0 min 0 W/m 6,4 km/h (2 Bft) 95,74 %
07.10.2020 19:14 13,1 C 12,2 C 11,7 C 85 % 1015,4 hPa 0,0 l/m 0 min 0 min 0 W/m 6,4 km/h (2 Bft) 95,74 %
07.10.2020 19:16 13,1 C 12,2 C 11,7 C 85 % 1015,4 hPa 0,0 l/m 0 min 0 min 0 W/m 12,9 km/h (3 Bft) 100,00 %
07.10.2020 19:18 13,1 C 12,2 C 11,7 C 85 % 1015,5 hPa 0,0 l/m 0 min 0 min 0 W/m 6,4 km/h (2 Bft) 97,87 %
07.10.2020 19:20 13,1 C 12,2 C 11,7 C 86 % 1015,6 hPa 0,0 l/m 0 min 0 min 0 W/m 6,4 km/h (2 Bft) 97,87 %
07.10.2020 19:22 13,1 C 12,2 C 11,1 C 85 % 1015,6 hPa 0,0 l/m 0 min 0 min 0 W/m 0,0 km/h (0 Bft) 100,00 %
07.10.2020 19:24 13,1 C 12,2 C 11,1 C 86 % 1015,7 hPa 0,0 l/m 0 min 0 min 0 W/m 6,4 km/h (2 Bft) 100,00 %
07.10.2020 19:26 13,1 C 12,2 C 11,7 C 86 % 1015,7 hPa 0,0 l/m 0 min 0 min 0 W/m 9,7 km/h (2 Bft) 100,00 %
07.10.2020 19:28 13,0 C 12,2 C 11,7 C 86 % 1015,7 hPa 0,0 l/m 0 min 0 min 0 W/m 19,3 km/h (3 Bft) 95,74 %
07.10.2020 19:30 13,0 C 12,2 C 11,7 C 86 % 1015,7 hPa 0,0 l/m 0 min 0 min 0 W/m 6,4 km/h (2 Bft) 100,00 %
07.10.2020 19:32 12,9 C 12,2 C 11,7 C 86 % 1015,8 hPa 0,0 l/m 0 min 0 min 0 W/m 16,1 km/h (3 Bft) 100,00 %
07.10.2020 19:34 12,9 C 12,2 C 11,7 C 85 % 1015,9 hPa 0,0 l/m 0 min 0 min 0 W/m 12,9 km/h (3 Bft) 100,00 %
07.10.2020 19:36 12,9 C 11,7 C 11,7 C 85 % 1015,9 hPa 0,0 l/m 0 min 0 min 0 W/m 12,9 km/h (3 Bft) 97,87 %
07.10.2020 19:38 12,9 C 11,7 C 11,7 C 85 % 1015,9 hPa 0,0 l/m 0 min 0 min 0 W/m 0,0 km/h (0 Bft) 100,00 %
07.10.2020 19:40 12,9 C 11,7 C 11,1 C 85 % 1015,9 hPa 0,0 l/m 0 min 0 min 0 W/m 6,4 km/h (2 Bft) 97,87 %
07.10.2020 19:42 12,9 C 11,7 C 11,1 C 85 % 1015,9 hPa 0,0 l/m 0 min 0 min 0 W/m 9,7 km/h (2 Bft) 97,87 %
07.10.2020 19:44 12,8 C 11,7 C 11,1 C 85 % 1016,0 hPa 0,0 l/m 0 min 0 min 0 W/m 6,4 km/h (2 Bft) 100,00 %
07.10.2020 19:46 12,8 C 11,7 C 11,1 C 85 % 1016,0 hPa 0,0 l/m 0 min 0 min 0 W/m 12,9 km/h (3 Bft) 97,83 %
07.10.2020 19:48 12,8 C 11,7 C 11,1 C 85 % 1016,1 hPa 0,0 l/m 0 min 0 min 0 W/m 3,2 km/h (1 Bft) 95,74 %
07.10.2020 19:50 12,8 C 11,7 C 11,1 C 85 % 1016,1 hPa 0,0 l/m 0 min 0 min 0 W/m 0,0 km/h (0 Bft) 97,87 %
07.10.2020 19:52 12,8 C 11,7 C 11,1 C 85 % 1016,2 hPa 0,0 l/m 0 min 0 min 0 W/m 0,0 km/h (0 Bft) 97,87 %
07.10.2020 19:54 12,7 C 11,7 C 11,1 C 85 % 1016,2 hPa 0,0 l/m 0 min 0 min 0 W/m 0,0 km/h (0 Bft) 97,87 %
07.10.2020 19:56 12,7 C 11,7 C 11,1 C 85 % 1016,2 hPa 0,0 l/m 0 min 0 min 0 W/m 0,0 km/h (0 Bft) 97,83 %
07.10.2020 19:58 12,7 C 11,7 C 11,1 C 86 % 1016,3 hPa 0,0 l/m 0 min 0 min 0 W/m 0,0 km/h (0 Bft) 97,87 %
07.10.2020 20:00 12,7 C 11,7 C 11,1 C 86 % 1016,3 hPa 0,0 l/m 0 min 0 min 0 W/m 0,0 km/h (0 Bft) 95,74 %
07.10.2020 20:02 12,6 C 11,1 C 11,1 C 85 % 1016,3 hPa 0,0 l/m 0 min 0 min 0 W/m 3,2 km/h (1 Bft) 93,62 %
07.10.2020 20:04 12,6 C 11,1 C 11,1 C 85 % 1016,3 hPa 0,0 l/m 0 min 0 min 0 W/m 0,0 km/h (0 Bft) 97,87 %
07.10.2020 20:06 12,6 C 11,1 C 11,1 C 85 % 1016,3 hPa 0,0 l/m 0 min 0 min 0 W/m 3,2 km/h (1 Bft) 95,74 %
07.10.2020 20:08 12,6 C 11,1 C 10,6 C 85 % 1016,4 hPa 0,0 l/m 0 min 0 min 0 W/m 6,4 km/h (2 Bft) 95,65 %
07.10.2020 20:10 12,5 C 11,1 C 10,6 C 86 % 1016,4 hPa 0,0 l/m 0 min 0 min 0 W/m 3,2 km/h (1 Bft) 97,87 %
07.10.2020 20:12 12,5 C 11,1 C 10,6 C 86 % 1016,4 hPa 0,0 l/m 0 min 0 min 0 W/m 3,2 km/h (1 Bft) 97,87 %
07.10.2020 20:14 12,4 C 11,1 C 10,6 C 86 % 1016,5 hPa 0,0 l/m 0 min 0 min 0 W/m 0,0 km/h (0 Bft) 95,74 %
07.10.2020 20:16 12,4 C 11,1 C 10,6 C 86 % 1016,5 hPa 0,0 l/m 0 min 0 min 0 W/m 0,0 km/h (0 Bft) 97,96 %
07.10.2020 20:18 12,4 C 11,1 C 10,6 C 86 % 1016,5 hPa 0,0 l/m 0 min 0 min 0 W/m 0,0 km/h (0 Bft) 97,83 %
07.10.2020 20:20 12,3 C 11,1 C 10,6 C 86 % 1016,5 hPa 0,0 l/m 0 min 0 min 0 W/m 0,0 km/h (0 Bft) 97,87 %
07.10.2020 20:22 12,3 C 11,1 C 10,6 C 86 % 1016,5 hPa 0,0 l/m 0 min 0 min 0 W/m 0,0 km/h (0 Bft) 97,87 %
07.10.2020 20:24 12,3 C 10,6 C 10,6 C 86 % 1016,5 hPa 0,0 l/m 0 min 0 min 0 W/m 0,0 km/h (0 Bft) 97,87 %
07.10.2020 20:26 12,2 C 11,1 C 10,6 C 86 % 1016,5 hPa 0,0 l/m 0 min 0 min 0 W/m 6,4 km/h (2 Bft) 97,87 %
07.10.2020 20:28 12,2 C 10,6 C 10,6 C 86 % 1016,5 hPa 0,0 l/m 0 min 0 min 0 W/m 0,0 km/h (0 Bft) 97,83 %
07.10.2020 20:30 12,2 C 10,6 C 10,6 C 86 % 1016,6 hPa 0,0 l/m 0 min 0 min 0 W/m 0,0 km/h (0 Bft) 97,87 %
07.10.2020 20:32 12,1 C 10,6 C 10,6 C 86 % 1016,6 hPa 0,0 l/m 0 min 0 min 0 W/m 0,0 km/h (0 Bft) 97,87 %
07.10.2020 20:34 12,1 C 10,6 C 10,0 C 86 % 1016,7 hPa 0,0 l/m 0 min 0 min 0 W/m 0,0 km/h (0 Bft) 100,00 %
07.10.2020 20:36 12,1 C 10,6 C 10,0 C 86 % 1016,8 hPa 0,0 l/m 0 min 0 min 0 W/m 3,2 km/h (1 Bft) 97,87 %
07.10.2020 20:38 12,0 C 10,6 C 10,0 C 86 % 1016,8 hPa 0,0 l/m 0 min 0 min 0 W/m 3,2 km/h (1 Bft) 100,00 %
07.10.2020 20:40 11,9 C 10,6 C 10,0 C 86 % 1016,8 hPa 0,0 l/m 0 min 0 min 0 W/m 3,2 km/h (1 Bft) 100,00 %
07.10.2020 20:42 11,9 C 10,6 C 10,0 C 86 % 1016,8 hPa 0,0 l/m 0 min 0 min 0 W/m 0,0 km/h (0 Bft) 100,00 %
07.10.2020 20:44 11,9 C 10,0 C 10,0 C 86 % 1016,9 hPa 0,0 l/m 0 min 0 min 0 W/m 0,0 km/h (0 Bft) 100,00 %
07.10.2020 20:46 11,9 C 10,0 C 10,0 C 86 % 1016,9 hPa 0,0 l/m 0 min 0 min 0 W/m 0,0 km/h (0 Bft) 100,00 %
07.10.2020 20:48 11,8 C 10,0 C 10,0 C 86 % 1016,9 hPa 0,0 l/m 0 min 0 min 0 W/m 0,0 km/h (0 Bft) 97,87 %
07.10.2020 20:50 11,8 C 10,0 C 10,0 C 86 % 1016,9 hPa 0,0 l/m 0 min 0 min 0 W/m 0,0 km/h (0 Bft) 100,00 %
07.10.2020 20:52 11,8 C 10,0 C 10,0 C 87 % 1016,9 hPa 0,0 l/m 0 min 0 min 0 W/m 0,0 km/h (0 Bft) 100,00 %
07.10.2020 20:54 11,7 C 10,0 C 10,0 C 87 % 1016,8 hPa 0,0 l/m 0 min 0 min 0 W/m 0,0 km/h (0 Bft) 97,87 %
07.10.2020 20:56 11,7 C 10,0 C 10,0 C 87 % 1016,9 hPa 0,0 l/m 0 min 0 min 0 W/m 0,0 km/h (0 Bft) 100,00 %
07.10.2020 20:58 11,6 C 10,0 C 10,0 C 87 % 1016,9 hPa 0,0 l/m 0 min 0 min 0 W/m 0,0 km/h (0 Bft) 100,00 %
07.10.2020 21:00 11,6 C 10,0 C 9,4 C 87 % 1016,9 hPa 0,0 l/m 0 min 0 min 0 W/m 0,0 km/h (0 Bft) 95,83 %
07.10.2020 21:02 11,6 C 10,0 C 10,0 C 87 % 1017,0 hPa 0,0 l/m 0 min 0 min 0 W/m 0,0 km/h (0 Bft) 97,92 %
07.10.2020 21:04 11,5 C 10,0 C 10,0 C 87 % 1017,0 hPa 0,0 l/m 0 min 0 min 0 W/m 0,0 km/h (0 Bft) 100,00 %
07.10.2020 21:06 11,4 C 10,0 C 10,0 C 87 % 1017,0 hPa 0,0 l/m 0 min 0 min 0 W/m 0,0 km/h (0 Bft) 100,00 %
07.10.2020 21:08 11,4 C 10,0 C 9,4 C 88 % 1017,0 hPa 0,0 l/m 0 min 0 min 0 W/m 0,0 km/h (0 Bft) 100,00 %
07.10.2020 21:10 11,4 C 10,0 C 9,4 C 88 % 1017,0 hPa 0,0 l/m 0 min 0 min 0 W/m 0,0 km/h (0 Bft) 97,87 %
07.10.2020 21:12 11,4 C 10,0 C 9,4 C 88 % 1017,0 hPa 0,0 l/m 0 min 0 min 0 W/m 0,0 km/h (0 Bft) 97,87 %
07.10.2020 21:14 11,3 C 10,0 C 9,4 C 88 % 1017,1 hPa 0,0 l/m 0 min 0 min 0 W/m 3,2 km/h (1 Bft) 100,00 %
07.10.2020 21:16 11,3 C 10,0 C 9,4 C 88 % 1017,1 hPa 0,0 l/m 0 min 0 min 0 W/m 0,0 km/h (0 Bft) 100,00 %
07.10.2020 21:18 11,3 C 10,0 C 9,4 C 88 % 1017,1 hPa 0,0 l/m 0 min 0 min 0 W/m 0,0 km/h (0 Bft) 100,00 %
07.10.2020 21:20 11,2 C 10,0 C 9,4 C 88 % 1017,1 hPa 0,0 l/m 0 min 0 min 0 W/m 0,0 km/h (0 Bft) 97,87 %
07.10.2020 21:22 11,2 C 10,0 C 9,4 C 88 % 1017,2 hPa 0,0 l/m 0 min 0 min 0 W/m 0,0 km/h (0 Bft) 95,83 %
07.10.2020 21:24 11,2 C 10,0 C 9,4 C 88 % 1017,3 hPa 0,0 l/m 0 min 0 min 0 W/m 0,0 km/h (0 Bft) 93,75 %
07.10.2020 21:26 11,1 C 10,0 C 9,4 C 88 % 1017,3 hPa 0,0 l/m 0 min 0 min 0 W/m 0,0 km/h (0 Bft) 95,83 %
07.10.2020 21:28 11,1 C 9,4 C 9,4 C 88 % 1017,4 hPa 0,0 l/m 0 min 0 min 0 W/m 0,0 km/h (0 Bft) 95,83 %
07.10.2020 21:30 11,1 C 10,0 C 9,4 C 88 % 1017,4 hPa 0,0 l/m 0 min 0 min 0 W/m 0,0 km/h (0 Bft) 93,62 %
07.10.2020 21:32 11,1 C 9,4 C 9,4 C 88 % 1017,4 hPa 0,0 l/m 0 min 0 min 0 W/m 0,0 km/h (0 Bft) 95,74 %
07.10.2020 21:34 11,1 C 9,4 C 9,4 C 89 % 1017,4 hPa 0,0 l/m 0 min 0 min 0 W/m 6,4 km/h (2 Bft) 95,74 %
07.10.2020 21:36 11,0 C 10,0 C 9,4 C 89 % 1017,4 hPa 0,0 l/m 0 min 0 min 0 W/m 9,7 km/h (2 Bft) 95,74 %
07.10.2020 21:38 11,0 C 9,4 C 9,4 C 89 % 1017,5 hPa 0,0 l/m 0 min 0 min 0 W/m 0,0 km/h (0 Bft) 95,65 %
07.10.2020 21:40 10,9 C 9,4 C 9,4 C 89 % 1017,4 hPa 0,0 l/m 0 min 0 min 0 W/m 0,0 km/h (0 Bft) 95,74 %
07.10.2020 21:42 10,9 C 9,4 C 9,4 C 89 % 1017,4 hPa 0,0 l/m 0 min 0 min 0 W/m 0,0 km/h (0 Bft) 95,74 %
07.10.2020 21:44 10,9 C 9,4 C 9,4 C 89 % 1017,4 hPa 0,0 l/m 0 min 0 min 0 W/m 3,2 km/h (1 Bft) 95,74 %
07.10.2020 21:46 10,9 C 9,4 C 9,4 C 89 % 1017,4 hPa 0,0 l/m 0 min 0 min 0 W/m 0,0 km/h (0 Bft) 93,62 %
07.10.2020 21:48 10,8 C 9,4 C 9,4 C 89 % 1017,4 hPa 0,0 l/m 0 min 0 min 0 W/m 3,2 km/h (1 Bft) 91,49 %
07.10.2020 21:50 10,8 C 9,4 C 9,4 C 89 % 1017,4 hPa 0,0 l/m 0 min 0 min 0 W/m 6,4 km/h (2 Bft) 95,65 %
07.10.2020 21:52 10,8 C 9,4 C 9,4 C 89 % 1017,4 hPa 0,0 l/m 0 min 0 min 0 W/m 0,0 km/h (0 Bft) 97,62 %
07.10.2020 21:54 10,8 C 9,4 C 9,4 C 89 % 1017,5 hPa 0,0 l/m 0 min 0 min 0 W/m 0,0 km/h (0 Bft) 93,62 %
07.10.2020 21:56 10,8 C 9,4 C 9,4 C 89 % 1017,5 hPa 0,0 l/m 0 min 0 min 0 W/m 0,0 km/h (0 Bft) 95,83 %
07.10.2020 21:58 10,7 C 9,4 C 9,4 C 89 % 1017,5 hPa 0,0 l/m 0 min 0 min 0 W/m 0,0 km/h (0 Bft) 96,00 %
07.10.2020 22:00 10,7 C 9,4 C 9,4 C 89 % 1017,5 hPa 0,0 l/m 0 min 0 min 0 W/m 0,0 km/h (0 Bft) 93,75 %
07.10.2020 22:02 10,7 C 9,4 C 8,9 C 89 % 1017,5 hPa 0,0 l/m 0 min 0 min 0 W/m 0,0 km/h (0 Bft) 95,74 %
07.10.2020 22:04 10,7 C 9,4 C 8,9 C 89 % 1017,5 hPa 0,0 l/m 0 min 0 min 0 W/m 0,0 km/h (0 Bft) 93,48 %
07.10.2020 22:06 10,6 C 9,4 C 8,9 C 89 % 1017,5 hPa 0,0 l/m 0 min 0 min 0 W/m 3,2 km/h (1 Bft) 91,49 %
07.10.2020 22:08 10,6 C 9,4 C 9,4 C 89 % 1017,5 hPa 0,0 l/m 0 min 0 min 0 W/m 0,0 km/h (0 Bft) 95,74 %
07.10.2020 22:10 10,6 C 9,4 C 8,9 C 90 % 1017,5 hPa 0,0 l/m 0 min 0 min 0 W/m 0,0 km/h (0 Bft) 55,56 %
07.10.2020 22:12 10,6 C 9,4 C 8,9 C 90 % 1017,6 hPa 0,0 l/m 0 min 0 min 0 W/m 0,0 km/h (0 Bft) 93,75 %
07.10.2020 22:14 10,6 C 9,4 C 8,9 C 90 % 1017,6 hPa 0,0 l/m 0 min 0 min 0 W/m 0,0 km/h (0 Bft) 93,62 %
07.10.2020 22:16 10,6 C 9,4 C 8,9 C 90 % 1017,6 hPa 0,0 l/m 0 min 0 min 0 W/m 0,0 km/h (0 Bft) 93,62 %
07.10.2020 22:18 10,5 C 9,4 C 8,9 C 90 % 1017,6 hPa 0,0 l/m 0 min 0 min 0 W/m 0,0 km/h (0 Bft) 93,75 %
07.10.2020 22:20 10,5 C 9,4 C 8,9 C 90 % 1017,6 hPa 0,0 l/m 0 min 0 min 0 W/m 0,0 km/h (0 Bft) 95,83 %
07.10.2020 22:22 10,5 C 9,4 C 8,9 C 90 % 1017,6 hPa 0,0 l/m 0 min 0 min 0 W/m 0,0 km/h (0 Bft) 95,83 %
07.10.2020 22:24 10,4 C 9,4 C 8,9 C 90 % 1017,7 hPa 0,0 l/m 0 min 0 min 0 W/m 3,2 km/h (1 Bft) 95,65 %
07.10.2020 22:26 10,4 C 9,4 C 8,9 C 90 % 1017,6 hPa 0,0 l/m 0 min 0 min 0 W/m 3,2 km/h (1 Bft) 95,74 %
07.10.2020 22:28 10,4 C 9,4 C 8,9 C 90 % 1017,7 hPa 0,0 l/m 0 min 0 min 0 W/m 0,0 km/h (0 Bft) 95,74 %
07.10.2020 22:30 10,4 C 9,4 C 8,9 C 90 % 1017,8 hPa 0,0 l/m 0 min 0 min 0 W/m 0,0 km/h (0 Bft) 91,49 %
07.10.2020 22:32 10,4 C 9,4 C 8,9 C 90 % 1017,7 hPa 0,0 l/m 0 min 0 min 0 W/m 0,0 km/h (0 Bft) 95,74 %
07.10.2020 22:34 10,4 C 9,4 C 9,4 C 90 % 1017,7 hPa 0,0 l/m 0 min 0 min 0 W/m 6,4 km/h (2 Bft) 95,65 %
07.10.2020 22:36 10,4 C 9,4 C 8,9 C 90 % 1017,7 hPa 0,0 l/m 0 min 0 min 0 W/m 6,4 km/h (2 Bft) 95,74 %
07.10.2020 22:38 10,4 C 9,4 C 8,9 C 90 % 1017,7 hPa 0,0 l/m 0 min 0 min 0 W/m 6,4 km/h (2 Bft) 97,87 %
07.10.2020 22:40 10,4 C 9,4 C 8,9 C 90 % 1017,7 hPa 0,0 l/m 0 min 0 min 0 W/m 0,0 km/h (0 Bft) 97,87 %
07.10.2020 22:42 10,3 C 9,4 C 8,9 C 90 % 1017,7 hPa 0,0 l/m 0 min 0 min 0 W/m 0,0 km/h (0 Bft) 97,87 %
07.10.2020 22:44 10,3 C 9,4 C 8,9 C 90 % 1017,7 hPa 0,0 l/m 0 min 0 min 0 W/m 9,7 km/h (2 Bft) 97,87 %
07.10.2020 22:46 10,3 C 9,4 C 8,9 C 90 % 1017,7 hPa 0,0 l/m 0 min 0 min 0 W/m 3,2 km/h (1 Bft) 95,65 %
07.10.2020 22:48 10,3 C 9,4 C 9,4 C 90 % 1017,7 hPa 0,0 l/m 0 min 0 min 0 W/m 0,0 km/h (0 Bft) 97,87 %
07.10.2020 22:50 10,3 C 9,4 C 9,4 C 90 % 1017,6 hPa 0,0 l/m 0 min 0 min 0 W/m 3,2 km/h (1 Bft) 100,00 %
07.10.2020 22:52 10,3 C 9,4 C 9,4 C 90 % 1017,7 hPa 0,0 l/m 0 min 0 min 0 W/m 3,2 km/h (1 Bft) 100,00 %
07.10.2020 22:54 10,3 C 9,4 C 8,9 C 91 % 1017,8 hPa 0,0 l/m 0 min 0 min 0 W/m 3,2 km/h (1 Bft) 100,00 %
07.10.2020 22:56 10,3 C 9,4 C 8,9 C 91 % 1017,8 hPa 0,0 l/m 0 min 0 min 0 W/m 3,2 km/h (1 Bft) 100,00 %
07.10.2020 22:58 10,3 C 9,4 C 8,9 C 91 % 1017,8 hPa 0,0 l/m 0 min 0 min 0 W/m 0,0 km/h (0 Bft) 100,00 %
07.10.2020 23:00 10,3 C 9,4 C 8,9 C 91 % 1017,7 hPa 0,0 l/m 0 min 0 min 0 W/m 0,0 km/h (0 Bft) 100,00 %
07.10.2020 23:02 10,3 C 9,4 C 8,9 C 91 % 1017,7 hPa 0,0 l/m 0 min 0 min 0 W/m 0,0 km/h (0 Bft) 100,00 %
07.10.2020 23:04 10,3 C 9,4 C 8,9 C 91 % 1017,8 hPa 0,0 l/m 0 min 0 min 0 W/m 0,0 km/h (0 Bft) 100,00 %
07.10.2020 23:06 10,3 C 9,4 C 8,9 C 91 % 1017,8 hPa 0,0 l/m 0 min 0 min 0 W/m 0,0 km/h (0 Bft) 100,00 %
07.10.2020 23:08 10,3 C 9,4 C 8,9 C 91 % 1017,8 hPa 0,0 l/m 0 min 0 min 0 W/m 0,0 km/h (0 Bft) 100,00 %
07.10.2020 23:10 10,3 C 9,4 C 8,9 C 91 % 1017,8 hPa 0,0 l/m 0 min 0 min 0 W/m 0,0 km/h (0 Bft) 100,00 %
07.10.2020 23:12 10,3 C 9,4 C 8,9 C 91 % 1017,9 hPa 0,0 l/m 0 min 0 min 0 W/m 0,0 km/h (0 Bft) 100,00 %
07.10.2020 23:14 10,3 C 9,4 C 8,9 C 91 % 1017,9 hPa 0,0 l/m 0 min 0 min 0 W/m 0,0 km/h (0 Bft) 100,00 %
07.10.2020 23:16 10,3 C 9,4 C 8,9 C 91 % 1017,9 hPa 0,0 l/m 0 min 0 min 0 W/m 0,0 km/h (0 Bft) 100,00 %
07.10.2020 23:18 10,3 C 9,4 C 8,9 C 91 % 1018,0 hPa 0,0 l/m 0 min 0 min 0 W/m 0,0 km/h (0 Bft) 95,74 %
07.10.2020 23:20 10,3 C 9,4 C 8,9 C 91 % 1018,0 hPa 0,0 l/m 0 min 0 min 0 W/m 0,0 km/h (0 Bft) 97,87 %
07.10.2020 23:22 10,2 C 9,4 C 8,9 C 91 % 1017,9 hPa 0,0 l/m 0 min 0 min 0 W/m 0,0 km/h (0 Bft) 100,00 %
07.10.2020 23:24 10,2 C 9,4 C 8,9 C 91 % 1017,8 hPa 0,0 l/m 0 min 0 min 0 W/m 0,0 km/h (0 Bft) 100,00 %
07.10.2020 23:26 10,2 C 9,4 C 8,9 C 91 % 1017,8 hPa 0,0 l/m 0 min 0 min 0 W/m 0,0 km/h (0 Bft) 100,00 %
07.10.2020 23:28 10,2 C 9,4 C 8,9 C 91 % 1017,9 hPa 0,0 l/m 0 min 0 min 0 W/m 12,9 km/h (3 Bft) 100,00 %
07.10.2020 23:30 10,2 C 9,4 C 8,9 C 91 % 1017,9 hPa 0,0 l/m 0 min 0 min 0 W/m 6,4 km/h (2 Bft) 100,00 %
07.10.2020 23:32 10,2 C 9,4 C 8,9 C 91 % 1017,9 hPa 0,0 l/m 0 min 0 min 0 W/m 6,4 km/h (2 Bft) 100,00 %
07.10.2020 23:34 10,2 C 9,4 C 8,9 C 91 % 1017,9 hPa 0,0 l/m 0 min 0 min 0 W/m 0,0 km/h (0 Bft) 100,00 %
07.10.2020 23:36 10,2 C 9,4 C 8,9 C 91 % 1018,0 hPa 0,0 l/m 0 min 0 min 0 W/m 9,7 km/h (2 Bft) 100,00 %
07.10.2020 23:38 10,2 C 8,9 C 8,9 C 91 % 1017,9 hPa 0,0 l/m 0 min 0 min 0 W/m 9,7 km/h (2 Bft) 100,00 %
07.10.2020 23:40 10,1 C 9,4 C 8,9 C 91 % 1018,0 hPa 0,0 l/m 0 min 0 min 0 W/m 6,4 km/h (2 Bft) 100,00 %
07.10.2020 23:42 10,1 C 8,9 C 8,9 C 91 % 1018,0 hPa 0,0 l/m 0 min 0 min 0 W/m 12,9 km/h (3 Bft) 97,92 %
07.10.2020 23:44 10,1 C 8,9 C 8,9 C 91 % 1018,0 hPa 0,0 l/m 0 min 0 min 0 W/m 12,9 km/h (3 Bft) 100,00 %
07.10.2020 23:46 10,1 C 8,9 C 8,9 C 91 % 1017,9 hPa 0,0 l/m 0 min 0 min 0 W/m 9,7 km/h (2 Bft) 100,00 %
07.10.2020 23:48 10,1 C 8,9 C 8,9 C 91 % 1017,9 hPa 0,0 l/m 0 min 0 min 0 W/m 3,2 km/h (1 Bft) 100,00 %
07.10.2020 23:50 10,1 C 8,9 C 8,9 C 91 % 1017,9 hPa 0,0 l/m 0 min 0 min 0 W/m 9,7 km/h (2 Bft) 100,00 %
07.10.2020 23:52 10,1 C 8,9 C 8,9 C 92 % 1018,0 hPa 0,0 l/m 0 min 0 min 0 W/m 0,0 km/h (0 Bft) 100,00 %
07.10.2020 23:54 10,1 C 8,9 C 8,9 C 92 % 1018,0 hPa 0,0 l/m 0 min 0 min 0 W/m 0,0 km/h (0 Bft) 97,87 %
07.10.2020 23:56 10,1 C 8,9 C 8,9 C 91 % 1018,0 hPa 0,0 l/m 0 min 0 min 0 W/m 0,0 km/h (0 Bft) 97,56 %
07.10.2020 23:58 10,1 C 8,9 C 8,9 C 91 % 1017,9 hPa 0,0 l/m 0 min 0 min 0 W/m 0,0 km/h (0 Bft) 100,00 %
_ Min-Zeit 23:40 23:38 22:02 17:38 00:00 - - - - 06:44 10:10
Minimum _ 10,1 C 8,9 C 8,9 C 82 % 1001,6 hPa - - - - 0,0 km/h (0 Bft) 51,06 %
_ Max-Zeit 17:12 16:00 16:58 09:10 23:18 06:48 09:48 06:08 16:58 16:24 00:24
Maximum _ 14,7 C 17,8 C 14,4 C 99 % 1018,0 hPa 0,4 l/m 2 min 4 min 384 W/m 35,4 km/h
O (5 Bft)
100,00 %
Durchschnitt _ 12,3 C 11,6 C 10,9 C 92 % 1010,1 hPa #10,0 l/m #52 min. #5:10 h 109 W/m 11,5 km/h (2 Bft) 96,93 %
© 2020 W. Hausmann